Time,TemperatureF,DewpointF,PressureIn,WindDirection,WindDirectionDegrees,WindSpeedMPH,WindSpeedGustMPH,Humidity,HourlyPrecipIn,Conditions,Clouds,dailyrainin,SoftwareType,DateUTC
2013-04-29 00:00:00,52.5,47.2,29.84,SSE,156,6.3,6.3,82,0.00,,CLR,0.00,VWS V14.01,2013-04-29 05:00:00,
2013-04-29 00:01:00,52.5,47.2,29.84,SSE,155,5.8,7.2,82,0.00,,CLR,0.00,VWS V14.01,2013-04-29 05:01:00,
2013-04-29 00:03:00,52.5,47.2,29.84,SSE,152,5.8,8.7,82,0.00,,CLR,0.00,VWS V14.01,2013-04-29 05:03:00,
2013-04-29 00:05:00,52.3,47.7,29.84,SSE,162,5.4,5.8,84,0.00,,CLR,0.00,VWS V14.01,2013-04-29 05:05:00,
2013-04-29 00:06:00,52.3,47.7,29.84,SSE,163,5.8,5.8,84,0.00,,CLR,0.00,VWS V14.01,2013-04-29 05:06:00,
2013-04-29 00:07:00,52.3,47.7,29.84,SE,145,6.7,9.2,84,0.00,,CLR,0.00,VWS V14.01,2013-04-29 05:07:00,
2013-04-29 00:08:00,52.3,47.7,29.84,SSE,165,3.6,9.2,84,0.00,,CLR,0.00,VWS V14.01,2013-04-29 05:08:00,
2013-04-29 00:11:00,52.3,47.7,29.84,South,175,3.1,3.6,84,0.00,,CLR,0.00,VWS V14.01,2013-04-29 05:11:00,
2013-04-29 00:12:00,52.3,47.7,29.84,SE,144,5.8,7.2,84,0.00,,CLR,0.00,VWS V14.01,2013-04-29 05:12:00,
2013-04-29 00:13:00,52.3,47.7,29.84,South,181,7.6,7.6,84,0.00,,CLR,0.00,VWS V14.01,2013-04-29 05:13:00,
2013-04-29 00:14:00,52.3,47.7,29.84,South,175,3.6,7.6,84,0.00,,CLR,0.00,VWS V14.01,2013-04-29 05:14:00,
2013-04-29 00:16:00,52.3,47.7,29.84,South,182,6.3,8.1,84,0.00,,CLR,0.00,VWS V14.01,2013-04-29 05:16:00,
2013-04-29 00:18:00,52.3,47.7,29.84,SSE,164,6.3,6.3,84,0.00,,CLR,0.00,VWS V14.01,2013-04-29 05:18:00,
2013-04-29 00:19:00,52.2,47.5,29.84,SSE,155,3.6,8.3,84,0.00,,CLR,0.00,VWS V14.01,2013-04-29 05:19:00,
2013-04-29 00:20:00,52.2,47.5,29.84,SSE,155,3.6,8.3,84,0.00,,CLR,0.00,VWS V14.01,2013-04-29 05:20:00,
2013-04-29 00:22:00,52.2,47.5,29.84,SSE,163,5.8,8.1,84,0.00,,CLR,0.00,VWS V14.01,2013-04-29 05:22:00,
2013-04-29 00:23:00,52.2,47.5,29.84,SSE,168,5.8,5.8,84,0.00,,CLR,0.00,VWS V14.01,2013-04-29 05:23:00,
2013-04-29 00:25:00,52.2,48.1,29.84,SSE,163,8.7,8.7,86,0.00,,CLR,0.00,VWS V14.01,2013-04-29 05:25:00,
2013-04-29 00:27:00,52.2,48.1,29.84,SSE,162,7.6,8.3,86,0.00,,CLR,0.00,VWS V14.01,2013-04-29 05:27:00,
2013-04-29 00:29:00,52.2,48.1,29.84,SSE,153,7.2,7.2,86,0.00,,CLR,0.00,VWS V14.01,2013-04-29 05:29:00,
2013-04-29 00:31:00,52.2,48.1,29.84,South,172,5.4,6.3,86,0.00,,CLR,0.00,VWS V14.01,2013-04-29 05:31:00,
2013-04-29 00:33:00,52.2,48.1,29.84,SSE,151,4.0,6.3,86,0.00,,CLR,0.00,VWS V14.01,2013-04-29 05:33:00,
2013-04-29 00:34:00,52.2,48.1,29.84,South,189,7.6,7.6,86,0.00,,CLR,0.00,VWS V14.01,2013-04-29 05:34:00,
2013-04-29 00:35:00,52.2,48.1,29.84,SSE,163,5.8,7.6,86,0.00,,CLR,0.00,VWS V14.01,2013-04-29 05:35:00,
2013-04-29 00:36:00,52.2,48.1,29.84,SSE,160,8.3,8.3,86,0.00,,CLR,0.00,VWS V14.01,2013-04-29 05:36:00,
2013-04-29 00:37:00,52.2,48.1,29.84,SSE,160,6.3,10.1,86,0.00,,CLR,0.00,VWS V14.01,2013-04-29 05:37:00,
2013-04-29 00:38:00,52.0,47.9,29.84,SSE,147,5.4,5.4,86,0.00,,CLR,0.00,VWS V14.01,2013-04-29 05:38:00,
2013-04-29 00:40:00,52.0,47.9,29.87,SSE,155,5.8,8.3,86,0.00,,CLR,0.00,VWS V14.01,2013-04-29 05:40:00,
2013-04-29 00:41:00,52.0,47.9,29.87,SE,142,5.4,8.1,86,0.00,,CLR,0.00,VWS V14.01,2013-04-29 05:41:00,
2013-04-29 00:42:00,52.0,47.9,29.87,SSE,148,5.4,7.6,86,0.00,,CLR,0.00,VWS V14.01,2013-04-29 05:42:00,
2013-04-29 00:44:00,52.0,47.9,29.87,SSE,154,5.8,8.3,86,0.00,,CLR,0.00,VWS V14.01,2013-04-29 05:44:00,
2013-04-29 00:45:00,52.0,47.9,29.87,SSE,149,5.8,8.3,86,0.00,,CLR,0.00,VWS V14.01,2013-04-29 05:45:00,
2013-04-29 00:46:00,52.0,47.9,29.87,SSE,152,6.3,8.3,86,0.00,,CLR,0.00,VWS V14.01,2013-04-29 05:46:00,
2013-04-29 00:47:00,52.0,47.9,29.87,SSE,152,5.4,8.3,86,0.00,,CLR,0.00,VWS V14.01,2013-04-29 05:47:00,
2013-04-29 00:49:00,52.0,47.9,29.87,SE,143,6.7,8.1,86,0.00,,CLR,0.00,VWS V14.01,2013-04-29 05:49:00,
2013-04-29 00:51:00,52.0,47.9,29.87,SSE,166,8.3,8.3,86,0.00,,CLR,0.00,VWS V14.01,2013-04-29 05:51:00,
2013-04-29 00:52:00,52.0,47.9,29.87,SE,144,8.3,8.3,86,0.00,,CLR,0.00,VWS V14.01,2013-04-29 05:52:00,
2013-04-29 00:53:00,52.0,47.9,29.87,SE,144,5.4,8.3,86,0.00,,CLR,0.00,VWS V14.01,2013-04-29 05:53:00,
2013-04-29 00:55:00,52.0,48.5,29.84,SSE,158,7.6,8.3,88,0.00,,CLR,0.00,VWS V14.01,2013-04-29 05:55:00,
2013-04-29 00:56:00,52.0,48.5,29.84,SSE,167,5.4,8.7,88,0.00,,CLR,0.00,VWS V14.01,2013-04-29 05:56:00,
2013-04-29 00:57:00,52.0,48.5,29.84,SSE,167,5.4,8.7,88,0.00,,CLR,0.00,VWS V14.01,2013-04-29 05:57:00,
2013-04-29 01:00:00,51.8,48.4,29.84,SSE,158,5.4,8.1,88,0.00,,CLR,0.00,VWS V14.01,2013-04-29 06:00:00,
2013-04-29 01:02:00,52.0,48.5,29.84,SSE,164,7.6,8.3,88,0.00,,CLR,0.00,VWS V14.01,2013-04-29 06:02:00,
2013-04-29 01:03:00,51.8,48.4,29.84,SE,143,8.1,8.3,88,0.00,,CLR,0.00,VWS V14.01,2013-04-29 06:03:00,
2013-04-29 01:05:00,51.8,48.4,29.84,SSE,163,5.8,8.3,88,0.00,,CLR,0.00,VWS V14.01,2013-04-29 06:05:00,
2013-04-29 01:07:00,51.8,48.4,29.84,South,190,7.6,7.6,88,0.00,,CLR,0.00,VWS V14.01,2013-04-29 06:07:00,
2013-04-29 01:08:00,51.8,48.4,29.84,South,169,7.6,8.3,88,0.00,,CLR,0.00,VWS V14.01,2013-04-29 06:08:00,
2013-04-29 01:09:00,51.8,48.4,29.87,SSE,163,7.6,7.6,88,0.00,,CLR,0.00,VWS V14.01,2013-04-29 06:09:00,
2013-04-29 01:11:00,51.8,48.4,29.87,SSW,194,6.3,8.7,88,0.00,,CLR,0.00,VWS V14.01,2013-04-29 06:11:00,
2013-04-29 01:12:00,51.8,48.4,29.87,SSE,168,5.8,6.3,88,0.00,,CLR,0.00,VWS V14.01,2013-04-29 06:12:00,
2013-04-29 01:13:00,51.8,48.4,29.87,SSE,168,6.3,6.3,88,0.00,,CLR,0.00,VWS V14.01,2013-04-29 06:13:00,
2013-04-29 01:15:00,51.8,48.4,29.87,SE,140,4.0,8.1,88,0.00,,CLR,0.00,VWS V14.01,2013-04-29 06:15:00,
2013-04-29 01:16:00,51.8,48.4,29.87,SSE,165,8.1,8.7,88,0.00,,CLR,0.00,VWS V14.01,2013-04-29 06:16:00,
2013-04-29 01:17:00,51.8,48.4,29.87,South,173,7.6,8.3,88,0.00,,CLR,0.00,VWS V14.01,2013-04-29 06:17:00,
2013-04-29 01:18:00,51.8,48.4,29.87,SSE,149,5.8,8.3,88,0.00,,CLR,0.00,VWS V14.01,2013-04-29 06:18:00,
2013-04-29 01:20:00,51.8,48.4,29.87,SSE,151,3.1,6.3,88,0.00,,CLR,0.00,VWS V14.01,2013-04-29 06:20:00,
2013-04-29 01:21:00,51.8,48.4,29.87,SSE,150,6.3,8.7,88,0.00,,CLR,0.00,VWS V14.01,2013-04-29 06:21:00,
2013-04-29 01:24:00,51.8,48.4,29.87,SSW,205,7.6,7.6,88,0.00,,CLR,0.00,VWS V14.01,2013-04-29 06:24:00,
2013-04-29 01:25:00,51.8,48.4,29.87,SSE,158,6.3,8.3,88,0.00,,CLR,0.00,VWS V14.01,2013-04-29 06:25:00,
2013-04-29 01:26:00,51.6,48.8,29.87,SSE,162,5.4,8.1,90,0.00,,CLR,0.00,VWS V14.01,2013-04-29 06:26:00,
2013-04-29 01:29:00,51.6,48.8,29.87,SSE,153,8.3,8.3,90,0.00,,CLR,0.00,VWS V14.01,2013-04-29 06:29:00,
2013-04-29 01:30:00,51.6,48.8,29.87,SSE,153,5.8,8.7,90,0.00,,CLR,0.00,VWS V14.01,2013-04-29 06:30:00,
2013-04-29 01:31:00,51.6,48.8,29.87,SE,135,6.3,6.3,90,0.00,,CLR,0.00,VWS V14.01,2013-04-29 06:31:00,
2013-04-29 01:34:00,51.6,48.8,29.87,SSE,162,5.4,5.4,90,0.00,,CLR,0.00,VWS V14.01,2013-04-29 06:34:00,
2013-04-29 01:35:00,51.4,48.6,29.87,South,176,6.3,8.7,90,0.00,,CLR,0.00,VWS V14.01,2013-04-29 06:35:00,
2013-04-29 01:36:00,51.4,48.6,29.87,SSE,153,5.8,8.7,90,0.00,,CLR,0.00,VWS V14.01,2013-04-29 06:36:00,
2013-04-29 01:37:00,51.4,48.6,29.87,South,179,6.3,6.3,90,0.00,,CLR,0.00,VWS V14.01,2013-04-29 06:37:00,
2013-04-29 01:40:00,51.4,48.6,29.87,South,179,3.1,4.9,90,0.00,,CLR,0.00,VWS V14.01,2013-04-29 06:40:00,
2013-04-29 01:41:00,51.3,49.0,29.87,SE,144,4.0,5.4,92,0.00,,CLR,0.00,VWS V14.01,2013-04-29 06:41:00,
2013-04-29 01:43:00,51.3,49.0,29.87,South,191,5.8,8.3,92,0.00,,CLR,0.00,VWS V14.01,2013-04-29 06:43:00,
2013-04-29 01:45:00,51.3,49.0,29.87,SSE,152,3.1,3.6,92,0.00,,CLR,0.00,VWS V14.01,2013-04-29 06:45:00,
2013-04-29 01:46:00,51.1,48.8,29.87,SE,145,3.1,6.7,92,0.00,,CLR,0.00,VWS V14.01,2013-04-29 06:46:00,
2013-04-29 01:47:00,51.1,48.8,29.87,SE,146,5.8,6.7,92,0.00,,CLR,0.00,VWS V14.01,2013-04-29 06:47:00,
2013-04-29 01:48:00,51.1,48.8,29.87,SSE,167,5.4,8.1,92,0.00,,CLR,0.00,VWS V14.01,2013-04-29 06:48:00,
2013-04-29 01:49:00,51.1,48.8,29.87,SE,138,6.3,6.3,92,0.00,,CLR,0.00,VWS V14.01,2013-04-29 06:49:00,
2013-04-29 01:51:00,51.1,49.4,29.87,SSE,158,7.2,7.2,94,0.00,,CLR,0.00,VWS V14.01,2013-04-29 06:51:00,
2013-04-29 01:53:00,51.1,49.4,29.87,SSE,152,5.4,6.3,94,0.00,,CLR,0.00,VWS V14.01,2013-04-29 06:53:00,
2013-04-29 01:54:00,51.1,49.4,29.87,SE,133,5.4,6.3,94,0.00,,CLR,0.00,VWS V14.01,2013-04-29 06:54:00,
2013-04-29 01:56:00,50.9,49.2,29.87,South,169,8.7,8.7,94,0.00,,CLR,0.00,VWS V14.01,2013-04-29 06:56:00,
2013-04-29 01:59:00,51.1,49.4,29.87,SSE,147,4.0,6.3,94,0.00,,CLR,0.00,VWS V14.01,2013-04-29 06:59:00,
2013-04-29 02:01:00,50.9,49.2,29.87,SSE,159,2.7,6.3,94,0.00,,CLR,0.00,VWS V14.01,2013-04-29 07:01:00,
2013-04-29 02:02:00,50.9,49.2,29.87,ESE,111,8.1,8.1,94,0.00,,CLR,0.00,VWS V14.01,2013-04-29 07:02:00,
2013-04-29 02:03:00,50.9,49.2,29.87,SSE,157,7.6,8.1,94,0.00,,CLR,0.00,VWS V14.01,2013-04-29 07:03:00,
2013-04-29 02:04:00,50.9,49.2,29.87,SSE,156,4.9,7.6,94,0.00,,CLR,0.00,VWS V14.01,2013-04-29 07:04:00,
2013-04-29 02:06:00,50.9,49.2,29.87,South,171,4.0,5.4,94,0.00,,CLR,0.00,VWS V14.01,2013-04-29 07:06:00,
2013-04-29 02:07:00,50.9,49.2,29.87,SSE,159,3.6,5.4,94,0.00,,CLR,0.00,VWS V14.01,2013-04-29 07:07:00,
2013-04-29 02:08:00,50.9,49.2,29.87,SSE,158,4.0,6.3,94,0.00,,CLR,0.00,VWS V14.01,2013-04-29 07:08:00,
2013-04-29 02:09:00,50.9,49.2,29.87,SSE,152,5.8,5.8,94,0.00,,CLR,0.00,VWS V14.01,2013-04-29 07:09:00,
2013-04-29 02:12:00,50.7,49.1,29.87,SSE,162,5.4,5.4,94,0.00,,CLR,0.00,VWS V14.01,2013-04-29 07:12:00,
2013-04-29 02:13:00,50.7,49.1,29.87,SSE,153,4.0,5.8,94,0.00,,CLR,0.00,VWS V14.01,2013-04-29 07:13:00,
2013-04-29 02:14:00,50.7,49.6,29.87,SSE,160,5.4,5.4,96,0.00,,CLR,0.00,VWS V14.01,2013-04-29 07:14:00,
2013-04-29 02:15:00,50.7,49.6,29.87,SSE,154,6.3,6.3,96,0.00,,CLR,0.00,VWS V14.01,2013-04-29 07:15:00,
2013-04-29 02:17:00,50.5,49.5,29.87,SSE,162,6.3,6.3,96,0.00,,CLR,0.00,VWS V14.01,2013-04-29 07:17:00,
2013-04-29 02:19:00,50.5,49.5,29.87,SSE,168,4.9,8.1,96,0.00,,CLR,0.00,VWS V14.01,2013-04-29 07:19:00,
2013-04-29 02:20:00,50.5,49.5,29.87,SSE,156,5.8,8.3,96,0.00,,CLR,0.00,VWS V14.01,2013-04-29 07:20:00,
2013-04-29 02:22:00,50.5,49.5,29.87,SSE,161,2.7,5.4,96,0.00,,CLR,0.00,VWS V14.01,2013-04-29 07:22:00,
2013-04-29 02:23:00,50.5,49.5,29.87,SSE,165,3.1,6.3,96,0.00,,CLR,0.00,VWS V14.01,2013-04-29 07:23:00,
2013-04-29 02:24:00,50.5,49.5,29.84,SSE,161,4.0,4.0,96,0.00,,CLR,0.00,VWS V14.01,2013-04-29 07:24:00,
2013-04-29 02:26:00,50.5,49.5,29.84,SE,138,5.4,7.6,96,0.00,,CLR,0.00,VWS V14.01,2013-04-29 07:26:00,
2013-04-29 02:28:00,50.5,50.0,29.84,SE,144,5.8,6.3,98,0.00,,CLR,0.00,VWS V14.01,2013-04-29 07:28:00,
2013-04-29 02:29:00,50.5,50.0,29.84,SSE,158,5.8,5.8,98,0.00,,CLR,0.00,VWS V14.01,2013-04-29 07:29:00,
2013-04-29 02:31:00,50.5,50.0,29.84,SE,141,5.8,5.8,98,0.00,,CLR,0.00,VWS V14.01,2013-04-29 07:31:00,
2013-04-29 02:32:00,50.5,50.0,29.84,SSE,148,3.1,5.8,98,0.00,,CLR,0.00,VWS V14.01,2013-04-29 07:32:00,
2013-04-29 02:34:00,50.5,50.0,29.84,SSE,161,7.2,7.2,98,0.00,,CLR,0.00,VWS V14.01,2013-04-29 07:34:00,
2013-04-29 02:35:00,50.5,50.0,29.84,SSE,163,5.4,7.6,98,0.00,,CLR,0.00,VWS V14.01,2013-04-29 07:35:00,
2013-04-29 02:38:00,50.5,50.0,29.84,SE,145,6.3,7.6,98,0.00,,CLR,0.00,VWS V14.01,2013-04-29 07:38:00,
2013-04-29 02:39:00,50.5,50.0,29.87,SSE,158,5.4,5.4,98,0.00,,CLR,0.00,VWS V14.01,2013-04-29 07:39:00,
2013-04-29 02:40:00,50.5,50.0,29.87,SSE,156,5.8,5.8,98,0.00,,CLR,0.00,VWS V14.01,2013-04-29 07:40:00,
2013-04-29 02:43:00,50.5,50.0,29.87,South,173,5.4,5.4,98,0.00,,CLR,0.00,VWS V14.01,2013-04-29 07:43:00,
2013-04-29 02:44:00,50.5,50.0,29.87,SSE,152,7.6,7.6,98,0.00,,CLR,0.00,VWS V14.01,2013-04-29 07:44:00,
2013-04-29 02:45:00,50.4,49.8,29.87,SSE,154,4.0,4.0,98,0.00,,CLR,0.00,VWS V14.01,2013-04-29 07:45:00,
2013-04-29 02:46:00,50.5,50.0,29.87,SSE,164,5.4,6.3,98,0.00,,CLR,0.00,VWS V14.01,2013-04-29 07:46:00,
2013-04-29 02:48:00,50.4,49.8,29.87,SSE,156,3.1,3.1,98,0.00,,CLR,0.00,VWS V14.01,2013-04-29 07:48:00,
2013-04-29 02:49:00,50.4,49.8,29.87,SSE,158,5.4,5.4,98,0.00,,CLR,0.00,VWS V14.01,2013-04-29 07:49:00,
2013-04-29 02:50:00,50.4,49.8,29.87,SE,145,5.4,6.3,98,0.00,,CLR,0.00,VWS V14.01,2013-04-29 07:50:00,
2013-04-29 02:51:00,50.4,49.8,29.87,SSE,155,2.7,6.3,98,0.00,,CLR,0.00,VWS V14.01,2013-04-29 07:51:00,
2013-04-29 02:53:00,50.4,50.4,29.87,South,176,3.6,6.3,100,0.00,,CLR,0.00,VWS V14.01,2013-04-29 07:53:00,
2013-04-29 02:54:00,50.4,50.4,29.87,SSE,162,5.4,6.3,100,0.00,,CLR,0.00,VWS V14.01,2013-04-29 07:54:00,
2013-04-29 02:56:00,50.4,50.4,29.84,SSE,157,5.8,5.8,100,0.00,,CLR,0.00,VWS V14.01,2013-04-29 07:56:00,
2013-04-29 02:57:00,50.4,50.4,29.84,SSE,154,5.8,8.1,100,0.00,,CLR,0.00,VWS V14.01,2013-04-29 07:57:00,
2013-04-29 02:59:00,50.4,50.4,29.84,SSE,167,5.4,6.3,100,0.00,,CLR,0.00,VWS V14.01,2013-04-29 07:59:00,
2013-04-29 03:00:00,50.4,50.4,29.84,SSE,161,3.1,6.3,100,0.00,,CLR,0.00,VWS V14.01,2013-04-29 08:00:00,
2013-04-29 03:01:00,50.4,50.4,29.84,SSE,168,5.4,7.2,100,0.00,,CLR,0.00,VWS V14.01,2013-04-29 08:01:00,
2013-04-29 03:02:00,50.4,50.4,29.84,SSE,167,6.3,6.3,100,0.00,,CLR,0.00,VWS V14.01,2013-04-29 08:02:00,
2013-04-29 03:04:00,50.4,50.4,29.84,SSE,161,5.8,6.3,100,0.00,,CLR,0.00,VWS V14.01,2013-04-29 08:04:00,
2013-04-29 03:05:00,50.4,50.4,29.84,South,184,4.9,4.9,100,0.00,,CLR,0.00,VWS V14.01,2013-04-29 08:05:00,
2013-04-29 03:06:00,50.4,50.4,29.84,SSE,162,6.3,6.3,100,0.00,,CLR,0.00,VWS V14.01,2013-04-29 08:06:00,
2013-04-29 03:08:00,50.4,50.4,29.84,South,173,5.8,6.3,100,0.00,,CLR,0.00,VWS V14.01,2013-04-29 08:08:00,
2013-04-29 03:09:00,50.4,50.4,29.84,SSE,154,7.6,7.6,100,0.00,,CLR,0.00,VWS V14.01,2013-04-29 08:09:00,
2013-04-29 03:11:00,50.4,50.4,29.84,South,179,4.9,7.6,100,0.00,,CLR,0.00,VWS V14.01,2013-04-29 08:11:00,
2013-04-29 03:12:00,50.4,50.4,29.84,SSE,155,7.6,7.6,100,0.00,,CLR,0.00,VWS V14.01,2013-04-29 08:12:00,
2013-04-29 03:13:00,50.4,50.4,29.84,SSE,149,7.2,7.6,100,0.00,,CLR,0.00,VWS V14.01,2013-04-29 08:13:00,
2013-04-29 03:14:00,50.4,50.4,29.84,South,175,5.4,6.3,100,0.00,,CLR,0.00,VWS V14.01,2013-04-29 08:14:00,
2013-04-29 03:16:00,50.4,50.4,29.84,SSE,167,6.7,7.2,100,0.00,,CLR,0.00,VWS V14.01,2013-04-29 08:16:00,
2013-04-29 03:17:00,50.4,50.4,29.84,SSE,149,5.4,6.7,100,0.00,,CLR,0.00,VWS V14.01,2013-04-29 08:17:00,
2013-04-29 03:18:00,50.4,50.4,29.84,SSE,167,5.8,5.8,100,0.00,,CLR,0.00,VWS V14.01,2013-04-29 08:18:00,
2013-04-29 03:20:00,50.4,50.4,29.84,SSE,165,6.7,8.3,100,0.00,,CLR,0.00,VWS V14.01,2013-04-29 08:20:00,
2013-04-29 03:21:00,50.4,50.4,29.84,South,170,5.4,5.8,100,0.00,,CLR,0.00,VWS V14.01,2013-04-29 08:21:00,
2013-04-29 03:22:00,50.4,50.4,29.84,SSE,158,7.6,7.6,100,0.00,,CLR,0.00,VWS V14.01,2013-04-29 08:22:00,
2013-04-29 03:23:00,50.4,50.4,29.84,SSE,167,5.8,7.6,100,0.00,,CLR,0.00,VWS V14.01,2013-04-29 08:23:00,
2013-04-29 03:24:00,50.4,50.4,29.84,South,178,5.4,8.1,100,0.00,,CLR,0.00,VWS V14.01,2013-04-29 08:24:00,
2013-04-29 03:26:00,50.4,50.4,29.84,SSE,152,6.7,6.7,100,0.00,,CLR,0.00,VWS V14.01,2013-04-29 08:26:00,
2013-04-29 03:27:00,50.4,50.4,29.84,SSE,159,4.9,6.3,100,0.00,,CLR,0.00,VWS V14.01,2013-04-29 08:27:00,
2013-04-29 03:28:00,50.4,50.4,29.84,SE,133,4.9,8.3,100,0.00,,CLR,0.00,VWS V14.01,2013-04-29 08:28:00,
2013-04-29 03:29:00,50.4,50.4,29.84,South,169,4.9,4.9,100,0.00,,CLR,0.00,VWS V14.01,2013-04-29 08:29:00,
2013-04-29 03:30:00,50.4,50.4,29.84,SSE,152,4.0,5.4,100,0.00,,CLR,0.00,VWS V14.01,2013-04-29 08:30:00,
2013-04-29 03:32:00,50.4,50.4,29.84,SSE,147,5.4,5.8,100,0.00,,CLR,0.00,VWS V14.01,2013-04-29 08:32:00,
2013-04-29 03:33:00,50.4,50.4,29.84,SSE,166,4.0,6.3,100,0.00,,CLR,0.00,VWS V14.01,2013-04-29 08:33:00,
2013-04-29 03:35:00,50.2,50.2,29.84,SSE,162,4.0,5.8,100,0.00,,CLR,0.00,VWS V14.01,2013-04-29 08:35:00,
2013-04-29 03:37:00,50.2,50.2,29.84,SSE,165,2.7,4.9,100,0.00,,CLR,0.00,VWS V14.01,2013-04-29 08:37:00,
2013-04-29 03:38:00,50.2,50.2,29.84,SSE,164,3.6,5.4,100,0.00,,CLR,0.00,VWS V14.01,2013-04-29 08:38:00,
2013-04-29 03:40:00,50.2,50.2,29.84,SSE,149,5.8,5.8,100,0.00,,CLR,0.00,VWS V14.01,2013-04-29 08:40:00,
2013-04-29 03:42:00,50.2,50.2,29.84,SE,129,4.0,5.8,100,0.00,,CLR,0.00,VWS V14.01,2013-04-29 08:42:00,
2013-04-29 03:43:00,50.2,50.2,29.84,SE,142,5.4,5.8,100,0.00,,CLR,0.00,VWS V14.01,2013-04-29 08:43:00,
2013-04-29 03:44:00,50.2,50.2,29.84,SSE,148,3.6,7.6,100,0.00,,CLR,0.00,VWS V14.01,2013-04-29 08:44:00,
2013-04-29 03:45:00,50.2,50.2,29.84,SSE,149,5.8,5.8,100,0.00,,CLR,0.00,VWS V14.01,2013-04-29 08:45:00,
2013-04-29 03:48:00,50.2,50.2,29.84,SE,140,5.4,5.4,100,0.00,,CLR,0.00,VWS V14.01,2013-04-29 08:48:00,
2013-04-29 03:50:00,50.2,50.2,29.84,SSE,156,4.0,7.6,100,0.00,,CLR,0.00,VWS V14.01,2013-04-29 08:50:00,
2013-04-29 03:51:00,50.2,50.2,29.84,SSE,153,4.9,5.8,100,0.00,,CLR,0.00,VWS V14.01,2013-04-29 08:51:00,
2013-04-29 03:53:00,50.2,50.2,29.84,SSE,162,5.8,6.3,100,0.00,,CLR,0.00,VWS V14.01,2013-04-29 08:53:00,
2013-04-29 03:54:00,50.2,50.2,29.84,South,181,6.3,6.3,100,0.00,,CLR,0.00,VWS V14.01,2013-04-29 08:54:00,
2013-04-29 03:55:00,50.2,50.2,29.84,SSE,155,6.3,6.3,100,0.00,,CLR,0.00,VWS V14.01,2013-04-29 08:55:00,
2013-04-29 03:58:00,50.2,50.2,29.84,SSE,164,5.8,8.3,100,0.00,,CLR,0.00,VWS V14.01,2013-04-29 08:58:00,
2013-04-29 03:59:00,50.2,50.2,29.84,SSE,162,4.0,6.3,100,0.00,,CLR,0.00,VWS V14.01,2013-04-29 08:59:00,
2013-04-29 04:00:00,50.2,50.2,29.84,SE,143,4.0,6.3,100,0.00,,CLR,0.00,VWS V14.01,2013-04-29 09:00:00,
2013-04-29 04:01:00,50.2,50.2,29.84,SSE,156,5.8,5.8,100,0.00,,CLR,0.00,VWS V14.01,2013-04-29 09:01:00,
2013-04-29 04:04:00,50.4,50.4,29.84,SE,128,5.8,5.8,100,0.00,,CLR,0.00,VWS V14.01,2013-04-29 09:04:00,
2013-04-29 04:05:00,50.4,50.4,29.84,SSE,152,6.3,6.3,100,0.00,,CLR,0.00,VWS V14.01,2013-04-29 09:05:00,
2013-04-29 04:07:00,50.4,50.4,29.84,SSE,151,5.8,5.8,100,0.00,,CLR,0.00,VWS V14.01,2013-04-29 09:07:00,
2013-04-29 04:10:00,50.4,50.4,29.84,SSE,154,6.3,6.3,100,0.00,,CLR,0.00,VWS V14.01,2013-04-29 09:10:00,
2013-04-29 04:11:00,50.4,50.4,29.84,SE,130,7.6,8.1,100,0.00,,CLR,0.00,VWS V14.01,2013-04-29 09:11:00,
2013-04-29 04:13:00,50.5,50.5,29.84,SSE,151,7.6,8.1,100,0.00,,CLR,0.00,VWS V14.01,2013-04-29 09:13:00,
2013-04-29 04:15:00,50.5,50.5,29.84,SSE,167,8.1,8.1,100,0.00,,CLR,0.00,VWS V14.01,2013-04-29 09:15:00,
2013-04-29 04:16:00,50.5,50.5,29.84,SSE,155,6.3,8.1,100,0.00,,CLR,0.00,VWS V14.01,2013-04-29 09:16:00,
2013-04-29 04:18:00,50.5,50.0,29.84,SSE,159,5.4,6.3,98,0.00,,CLR,0.00,VWS V14.01,2013-04-29 09:18:00,
2013-04-29 04:20:00,50.5,50.0,29.84,SSE,154,6.7,6.7,98,0.00,,CLR,0.00,VWS V14.01,2013-04-29 09:20:00,
2013-04-29 04:21:00,50.5,50.0,29.84,SSE,152,4.0,6.7,98,0.00,,CLR,0.00,VWS V14.01,2013-04-29 09:21:00,
2013-04-29 04:25:00,50.5,50.0,29.84,SSE,165,5.8,5.8,98,0.00,,CLR,0.00,VWS V14.01,2013-04-29 09:25:00,
2013-04-29 04:26:00,50.5,50.0,29.84,SE,138,3.6,5.8,98,0.00,,CLR,0.00,VWS V14.01,2013-04-29 09:26:00,
2013-04-29 04:27:00,50.5,50.0,29.84,SSE,164,4.0,5.8,98,0.00,,CLR,0.00,VWS V14.01,2013-04-29 09:27:00,
2013-04-29 04:31:00,50.5,50.0,29.84,South,173,3.1,7.2,98,0.00,,CLR,0.00,VWS V14.01,2013-04-29 09:31:00,
2013-04-29 04:32:00,50.5,50.0,29.84,SSE,163,8.1,8.1,98,0.00,,CLR,0.00,VWS V14.01,2013-04-29 09:32:00,
2013-04-29 04:33:00,50.5,50.0,29.84,SE,133,5.4,6.3,98,0.00,,CLR,0.00,VWS V14.01,2013-04-29 09:33:00,
2013-04-29 04:37:00,50.7,49.6,29.84,South,172,4.9,7.2,96,0.00,,CLR,0.00,VWS V14.01,2013-04-29 09:37:00,
2013-04-29 04:38:00,50.7,49.6,29.84,SSE,162,5.8,6.3,96,0.00,,CLR,0.00,VWS V14.01,2013-04-29 09:38:00,
2013-04-29 04:43:00,50.7,49.6,29.84,SSE,164,7.6,7.6,96,0.00,,CLR,0.00,VWS V14.01,2013-04-29 09:43:00,
2013-04-29 04:44:00,50.5,49.5,29.84,South,178,5.4,7.6,96,0.00,,CLR,0.00,VWS V14.01,2013-04-29 09:44:00,
2013-04-29 04:48:00,50.5,49.5,29.84,South,174,8.3,8.3,96,0.00,,CLR,0.00,VWS V14.01,2013-04-29 09:48:00,
2013-04-29 04:49:00,50.5,49.5,29.84,South,175,6.3,8.3,96,0.00,,CLR,0.00,VWS V14.01,2013-04-29 09:49:00,
2013-04-29 04:50:00,50.5,49.5,29.84,SSE,162,6.3,7.2,96,0.00,,CLR,0.00,VWS V14.01,2013-04-29 09:50:00,
2013-04-29 04:53:00,50.5,49.5,29.84,SSE,154,6.3,6.3,96,0.00,,CLR,0.00,VWS V14.01,2013-04-29 09:53:00,
2013-04-29 04:54:00,50.5,49.5,29.84,SSE,149,6.3,7.6,96,0.00,,CLR,0.00,VWS V14.01,2013-04-29 09:54:00,
2013-04-29 04:55:00,50.5,49.5,29.84,SSE,154,7.6,7.6,96,0.00,,CLR,0.00,VWS V14.01,2013-04-29 09:55:00,
2013-04-29 04:59:00,50.4,49.3,29.84,SE,144,8.3,8.3,96,0.00,,CLR,0.00,VWS V14.01,2013-04-29 09:59:00,
2013-04-29 05:00:00,50.4,49.3,29.84,SSE,164,5.4,8.3,96,0.00,,CLR,0.00,VWS V14.01,2013-04-29 10:00:00,
2013-04-29 05:01:00,50.4,49.3,29.84,SE,144,5.4,7.6,96,0.00,,CLR,0.00,VWS V14.01,2013-04-29 10:01:00,
2013-04-29 05:05:00,50.5,49.5,29.84,SSE,161,8.1,8.1,96,0.00,,CLR,0.00,VWS V14.01,2013-04-29 10:05:00,
2013-04-29 05:06:00,50.5,49.5,29.84,SSE,162,6.3,8.1,96,0.00,,CLR,0.00,VWS V14.01,2013-04-29 10:06:00,
2013-04-29 05:07:00,50.5,49.5,29.84,ESE,120,5.8,7.6,96,0.00,,CLR,0.00,VWS V14.01,2013-04-29 10:07:00,
2013-04-29 05:11:00,50.4,49.3,29.84,SSE,155,5.8,5.8,96,0.00,,CLR,0.00,VWS V14.01,2013-04-29 10:11:00,
2013-04-29 05:12:00,50.4,49.3,29.84,SE,142,3.1,3.1,96,0.00,,CLR,0.00,VWS V14.01,2013-04-29 10:12:00,
2013-04-29 05:15:00,50.4,49.3,29.84,SSE,154,3.6,5.4,96,0.00,,CLR,0.00,VWS V14.01,2013-04-29 10:15:00,
2013-04-29 05:16:00,50.4,49.3,29.84,South,183,4.0,7.6,96,0.00,,CLR,0.00,VWS V14.01,2013-04-29 10:16:00,
2013-04-29 05:17:00,50.4,49.3,29.84,SSE,165,6.3,7.6,96,0.00,,CLR,0.00,VWS V14.01,2013-04-29 10:17:00,
2013-04-29 05:22:00,50.4,49.3,29.84,SSE,156,6.3,6.3,96,0.00,,CLR,0.00,VWS V14.01,2013-04-29 10:22:00,
2013-04-29 05:23:00,50.4,49.3,29.84,SSE,161,5.4,6.7,96,0.00,,CLR,0.00,VWS V14.01,2013-04-29 10:23:00,
2013-04-29 05:28:00,50.2,49.1,29.84,SSE,163,3.6,6.3,96,0.00,,CLR,0.00,VWS V14.01,2013-04-29 10:28:00,
2013-04-29 05:29:00,50.4,49.3,29.84,South,180,5.8,6.3,96,0.00,,CLR,0.00,VWS V14.01,2013-04-29 10:29:00,
2013-04-29 05:33:00,50.4,49.8,29.84,SSE,158,6.3,8.7,98,0.00,,CLR,0.00,VWS V14.01,2013-04-29 10:33:00,
2013-04-29 05:34:00,50.4,49.8,29.84,SSE,166,4.0,8.7,98,0.00,,CLR,0.00,VWS V14.01,2013-04-29 10:34:00,
2013-04-29 05:35:00,50.4,49.8,29.84,SSE,158,5.8,6.3,98,0.00,,CLR,0.00,VWS V14.01,2013-04-29 10:35:00,
2013-04-29 05:39:00,50.4,49.3,29.84,SSE,150,2.7,6.3,96,0.00,,CLR,0.00,VWS V14.01,2013-04-29 10:39:00,
2013-04-29 05:40:00,50.4,49.3,29.84,SSE,149,5.4,5.4,96,0.00,,CLR,0.00,VWS V14.01,2013-04-29 10:40:00,
2013-04-29 05:41:00,50.4,49.3,29.84,SSE,157,4.0,6.3,96,0.00,,CLR,0.00,VWS V14.01,2013-04-29 10:41:00,
2013-04-29 05:44:00,50.4,49.3,29.84,SSE,148,7.6,8.1,96,0.00,,CLR,0.00,VWS V14.01,2013-04-29 10:44:00,
2013-04-29 05:45:00,50.4,49.3,29.84,ESE,114,6.3,7.6,96,0.00,,CLR,0.00,VWS V14.01,2013-04-29 10:45:00,
2013-04-29 05:46:00,50.4,49.3,29.84,SE,140,5.4,6.3,96,0.00,,CLR,0.00,VWS V14.01,2013-04-29 10:46:00,
2013-04-29 05:49:00,50.4,49.3,29.84,SSE,161,3.1,6.3,96,0.00,,CLR,0.00,VWS V14.01,2013-04-29 10:49:00,
2013-04-29 05:50:00,50.2,49.1,29.84,SSE,147,5.4,7.6,96,0.00,,CLR,0.00,VWS V14.01,2013-04-29 10:50:00,
2013-04-29 05:51:00,50.2,49.1,29.84,SE,144,5.8,5.8,96,0.00,,CLR,0.00,VWS V14.01,2013-04-29 10:51:00,
2013-04-29 05:53:00,50.4,49.3,29.84,SSE,153,5.8,6.3,96,0.00,,CLR,0.00,VWS V14.01,2013-04-29 10:53:00,
2013-04-29 05:55:00,50.2,49.1,29.84,SSE,158,6.3,6.3,96,0.00,,CLR,0.00,VWS V14.01,2013-04-29 10:55:00,
2013-04-29 05:57:00,50.2,49.1,29.84,SE,126,8.1,8.3,96,0.00,,CLR,0.00,VWS V14.01,2013-04-29 10:57:00,
2013-04-29 05:58:00,50.2,49.1,29.84,SE,144,5.8,5.8,96,0.00,,CLR,0.00,VWS V14.01,2013-04-29 10:58:00,
2013-04-29 06:00:00,50.4,49.3,29.84,SE,130,3.6,6.3,96,0.00,,CLR,0.00,VWS V14.01,2013-04-29 11:00:00,
2013-04-29 06:01:00,50.4,49.3,29.84,South,173,5.8,8.3,96,0.00,,CLR,0.00,VWS V14.01,2013-04-29 11:01:00,
2013-04-29 06:02:00,50.4,49.8,29.84,SE,146,5.4,6.3,98,0.00,,CLR,0.00,VWS V14.01,2013-04-29 11:02:00,
2013-04-29 06:03:00,50.4,49.8,29.84,SSE,152,4.0,6.3,98,0.00,,CLR,0.00,VWS V14.01,2013-04-29 11:03:00,
2013-04-29 06:05:00,50.4,49.3,29.84,SSE,148,5.8,7.6,96,0.00,,CLR,0.00,VWS V14.01,2013-04-29 11:05:00,
2013-04-29 06:06:00,50.4,49.3,29.84,SSE,164,6.3,7.6,96,0.00,,CLR,0.00,VWS V14.01,2013-04-29 11:06:00,
2013-04-29 06:07:00,50.4,49.3,29.84,SSE,152,5.8,5.8,96,0.00,,CLR,0.00,VWS V14.01,2013-04-29 11:07:00,
2013-04-29 06:09:00,50.4,49.3,29.84,SSE,165,5.8,5.8,96,0.00,,CLR,0.00,VWS V14.01,2013-04-29 11:09:00,
2013-04-29 06:11:00,50.4,49.3,29.84,South,172,5.8,6.3,96,0.00,,CLR,0.00,VWS V14.01,2013-04-29 11:11:00,
2013-04-29 06:12:00,50.4,49.3,29.84,SSE,151,5.8,8.3,96,0.00,,CLR,0.00,VWS V14.01,2013-04-29 11:12:00,
2013-04-29 06:15:00,50.5,49.5,29.84,South,169,6.3,6.3,96,0.00,,CLR,0.00,VWS V14.01,2013-04-29 11:15:00,
2013-04-29 06:16:00,50.5,49.5,29.84,SSE,159,8.3,8.3,96,0.00,,CLR,0.00,VWS V14.01,2013-04-29 11:16:00,
2013-04-29 06:17:00,50.5,49.5,29.84,SE,146,5.4,8.3,96,0.00,,CLR,0.00,VWS V14.01,2013-04-29 11:17:00,
2013-04-29 06:19:00,50.5,49.5,29.84,SSE,162,5.8,9.6,96,0.00,,CLR,0.00,VWS V14.01,2013-04-29 11:19:00,
2013-04-29 06:20:00,50.7,49.6,29.84,South,179,6.3,7.6,96,0.00,,CLR,0.00,VWS V14.01,2013-04-29 11:20:00,
2013-04-29 06:21:00,50.7,49.6,29.84,SSE,164,7.6,7.6,96,0.00,,CLR,0.00,VWS V14.01,2013-04-29 11:21:00,
2013-04-29 06:22:00,50.7,49.6,29.84,South,189,4.0,7.6,96,0.00,,CLR,0.00,VWS V14.01,2013-04-29 11:22:00,
2013-04-29 06:24:00,50.7,49.1,29.84,SSE,160,7.6,7.6,94,0.00,,CLR,0.00,VWS V14.01,2013-04-29 11:24:00,
2013-04-29 06:26:00,50.7,49.1,29.84,SSE,168,5.8,8.3,94,0.00,,CLR,0.00,VWS V14.01,2013-04-29 11:26:00,
2013-04-29 06:27:00,50.7,49.1,29.84,SSE,159,3.6,5.8,94,0.00,,CLR,0.00,VWS V14.01,2013-04-29 11:27:00,
2013-04-29 06:30:00,50.9,49.2,29.84,SSE,158,5.4,6.3,94,0.00,,CLR,0.00,VWS V14.01,2013-04-29 11:30:00,
2013-04-29 06:32:00,50.9,49.2,29.84,SE,141,5.4,6.3,94,0.00,,CLR,0.00,VWS V14.01,2013-04-29 11:32:00,
2013-04-29 06:33:00,50.9,49.2,29.84,SSE,156,6.3,6.3,94,0.00,,CLR,0.00,VWS V14.01,2013-04-29 11:33:00,
2013-04-29 06:35:00,50.9,49.2,29.84,SSE,166,6.7,6.7,94,0.00,,CLR,0.00,VWS V14.01,2013-04-29 11:35:00,
2013-04-29 06:37:00,50.9,49.2,29.84,SSE,153,5.4,8.1,94,0.00,,CLR,0.00,VWS V14.01,2013-04-29 11:37:00,
2013-04-29 06:38:00,51.1,49.4,29.84,SE,145,5.8,6.3,94,0.00,,CLR,0.00,VWS V14.01,2013-04-29 11:38:00,
2013-04-29 06:39:00,51.1,48.8,29.84,SE,132,5.8,7.6,92,0.00,,CLR,0.00,VWS V14.01,2013-04-29 11:39:00,
2013-04-29 06:40:00,51.1,48.8,29.84,SSE,162,2.7,6.3,92,0.00,,CLR,0.00,VWS V14.01,2013-04-29 11:40:00,
2013-04-29 06:43:00,51.1,48.8,29.84,SSE,163,5.4,7.6,92,0.00,,CLR,0.00,VWS V14.01,2013-04-29 11:43:00,
2013-04-29 06:44:00,51.3,49.0,29.84,SSE,154,4.0,7.6,92,0.00,,CLR,0.00,VWS V14.01,2013-04-29 11:44:00,
2013-04-29 06:46:00,51.3,49.0,29.84,SSE,150,5.8,5.8,92,0.00,,CLR,0.00,VWS V14.01,2013-04-29 11:46:00,
2013-04-29 06:48:00,51.4,49.2,29.84,SSE,165,4.9,6.3,92,0.00,,CLR,0.00,VWS V14.01,2013-04-29 11:48:00,
2013-04-29 06:50:00,51.4,49.2,29.84,SE,141,4.9,6.3,92,0.00,,CLR,0.00,VWS V14.01,2013-04-29 11:50:00,
2013-04-29 06:53:00,51.4,49.2,29.84,SSE,157,8.3,8.3,92,0.00,,CLR,0.00,VWS V14.01,2013-04-29 11:53:00,
2013-04-29 06:55:00,51.6,48.8,29.84,SSE,158,5.4,8.7,90,0.00,,CLR,0.00,VWS V14.01,2013-04-29 11:55:00,
2013-04-29 06:58:00,51.8,48.4,29.84,SSE,159,5.8,7.2,88,0.00,,CLR,0.00,VWS V14.01,2013-04-29 11:58:00,
2013-04-29 06:59:00,51.8,48.4,29.84,SSE,160,4.0,7.6,88,0.00,,CLR,0.00,VWS V14.01,2013-04-29 11:59:00,
2013-04-29 07:01:00,52.0,47.9,29.84,SE,143,7.6,7.6,86,0.00,,CLR,0.00,VWS V14.01,2013-04-29 12:01:00,
2013-04-29 07:02:00,52.0,47.9,29.84,SSE,149,7.6,8.3,86,0.00,,CLR,0.00,VWS V14.01,2013-04-29 12:02:00,
2013-04-29 07:04:00,52.2,48.1,29.84,SSE,167,3.6,6.3,86,0.00,,CLR,0.00,VWS V14.01,2013-04-29 12:04:00,
2013-04-29 07:06:00,52.3,48.3,29.84,ESE,107,7.6,8.3,86,0.00,,CLR,0.00,VWS V14.01,2013-04-29 12:06:00,
2013-04-29 07:07:00,52.3,48.3,29.84,SSE,165,7.6,7.6,86,0.00,,CLR,0.00,VWS V14.01,2013-04-29 12:07:00,
2013-04-29 07:09:00,52.3,47.7,29.84,SSE,156,7.6,8.3,84,0.00,,CLR,0.00,VWS V14.01,2013-04-29 12:09:00,
2013-04-29 07:10:00,52.5,47.8,29.84,South,173,5.8,8.7,84,0.00,,CLR,0.00,VWS V14.01,2013-04-29 12:10:00,
2013-04-29 07:12:00,52.5,47.8,29.84,SE,141,4.0,7.6,84,0.00,,CLR,0.00,VWS V14.01,2013-04-29 12:12:00,
2013-04-29 07:13:00,52.7,47.4,29.84,South,183,9.6,9.6,82,0.00,,CLR,0.00,VWS V14.01,2013-04-29 12:13:00,
2013-04-29 07:15:00,52.7,47.4,29.84,SSE,155,5.8,5.8,82,0.00,,CLR,0.00,VWS V14.01,2013-04-29 12:15:00,
2013-04-29 07:17:00,52.9,46.9,29.84,SSE,160,5.8,5.8,80,0.00,,CLR,0.00,VWS V14.01,2013-04-29 12:17:00,
2013-04-29 07:18:00,52.9,46.9,29.84,South,170,6.3,8.3,80,0.00,,CLR,0.00,VWS V14.01,2013-04-29 12:18:00,
2013-04-29 07:20:00,53.1,47.1,29.84,South,171,5.8,8.3,80,0.00,,CLR,0.00,VWS V14.01,2013-04-29 12:20:00,
2013-04-29 07:23:00,53.2,47.2,29.84,SSE,155,10.1,10.1,80,0.00,,CLR,0.00,VWS V14.01,2013-04-29 12:23:00,
2013-04-29 07:25:00,53.2,47.2,29.84,WSW,246,8.1,8.1,80,0.00,,CLR,0.00,VWS V14.01,2013-04-29 12:25:00,
2013-04-29 07:28:00,53.6,46.9,29.84,SSE,167,6.3,8.3,78,0.00,,CLR,0.00,VWS V14.01,2013-04-29 12:28:00,
2013-04-29 07:30:00,53.8,47.1,29.84,SSW,203,2.7,6.3,78,0.00,,CLR,0.00,VWS V14.01,2013-04-29 12:30:00,
2013-04-29 07:31:00,54.0,47.3,29.84,South,171,6.3,6.3,78,0.00,,CLR,0.00,VWS V14.01,2013-04-29 12:31:00,
2013-04-29 07:32:00,54.0,46.6,29.84,SE,145,7.6,7.6,76,0.00,,CLR,0.00,VWS V14.01,2013-04-29 12:32:00,
2013-04-29 07:35:00,54.3,46.9,29.84,SSE,164,4.9,6.3,76,0.00,,CLR,0.00,VWS V14.01,2013-04-29 12:35:00,
2013-04-29 07:36:00,54.5,47.1,29.84,SSE,168,5.4,5.4,76,0.00,,CLR,0.00,VWS V14.01,2013-04-29 12:36:00,
2013-04-29 07:37:00,54.5,47.1,29.84,SSE,152,5.8,5.8,76,0.00,,CLR,0.00,VWS V14.01,2013-04-29 12:37:00,
2013-04-29 07:40:00,55.6,46.7,29.84,SSE,168,5.8,8.3,72,0.00,,CLR,0.00,VWS V14.01,2013-04-29 12:40:00,
2013-04-29 07:42:00,55.8,46.9,29.84,South,177,5.8,7.6,72,0.00,,CLR,0.00,VWS V14.01,2013-04-29 12:42:00,
2013-04-29 07:44:00,55.9,46.3,29.84,SSE,161,6.3,7.6,70,0.00,,CLR,0.00,VWS V14.01,2013-04-29 12:44:00,
2013-04-29 07:46:00,56.3,46.7,29.84,SSE,153,3.1,3.1,70,0.00,,CLR,0.00,VWS V14.01,2013-04-29 12:46:00,
2013-04-29 07:47:00,56.3,46.7,29.84,SSE,152,10.1,10.1,70,0.00,,CLR,0.00,VWS V14.01,2013-04-29 12:47:00,
2013-04-29 07:48:00,56.3,46.7,29.84,SW,223,8.3,10.1,70,0.00,,CLR,0.00,VWS V14.01,2013-04-29 12:48:00,
2013-04-29 07:49:00,56.3,46.7,29.84,South,176,5.4,8.3,70,0.00,,CLR,0.00,VWS V14.01,2013-04-29 12:49:00,
2013-04-29 07:52:00,56.3,45.9,29.84,SSE,168,8.1,8.1,68,0.00,,CLR,0.00,VWS V14.01,2013-04-29 12:52:00,
2013-04-29 07:54:00,56.5,46.8,29.84,SSE,163,5.8,8.3,70,0.00,,CLR,0.00,VWS V14.01,2013-04-29 12:54:00,
2013-04-29 07:55:00,56.5,46.8,29.84,South,177,7.6,9.2,70,0.00,,CLR,0.00,VWS V14.01,2013-04-29 12:55:00,
2013-04-29 07:57:00,56.5,46.1,29.84,SSE,167,8.7,8.7,68,0.00,,CLR,0.00,VWS V14.01,2013-04-29 12:57:00,
2013-04-29 07:58:00,56.7,45.4,29.84,South,170,8.1,8.1,66,0.00,,CLR,0.00,VWS V14.01,2013-04-29 12:58:00,
2013-04-29 07:59:00,56.7,45.4,29.84,SSE,150,9.6,10.1,66,0.00,,CLR,0.00,VWS V14.01,2013-04-29 12:59:00,
2013-04-29 08:00:00,56.7,45.4,29.84,South,183,6.3,8.3,66,0.00,,CLR,0.00,VWS V14.01,2013-04-29 13:00:00,
2013-04-29 08:01:00,56.8,45.6,29.84,South,185,7.6,7.6,66,0.00,,CLR,0.00,VWS V14.01,2013-04-29 13:01:00,
2013-04-29 08:04:00,57.2,46.0,29.84,South,174,3.1,6.3,66,0.00,,CLR,0.00,VWS V14.01,2013-04-29 13:04:00,
2013-04-29 08:05:00,57.4,44.5,29.84,ESE,109,5.8,5.8,62,0.00,,CLR,0.00,VWS V14.01,2013-04-29 13:05:00,
2013-04-29 08:07:00,57.6,44.7,29.84,South,176,8.1,9.6,62,0.00,,CLR,0.00,VWS V14.01,2013-04-29 13:07:00,
2013-04-29 08:09:00,57.9,45.0,29.84,South,182,8.3,11.0,62,0.00,,CLR,0.00,VWS V14.01,2013-04-29 13:09:00,
2013-04-29 08:10:00,57.9,44.1,29.84,South,170,8.7,8.7,60,0.00,,CLR,0.00,VWS V14.01,2013-04-29 13:10:00,
2013-04-29 08:11:00,58.3,44.5,29.84,SSE,166,5.4,8.3,60,0.00,,CLR,0.00,VWS V14.01,2013-04-29 13:11:00,
2013-04-29 08:12:00,58.3,44.5,29.84,SE,145,11.0,11.0,60,0.00,,CLR,0.00,VWS V14.01,2013-04-29 13:12:00,
2013-04-29 08:14:00,58.3,43.6,29.84,South,185,8.1,8.3,58,0.00,,CLR,0.00,VWS V14.01,2013-04-29 13:14:00,
2013-04-29 08:16:00,58.3,43.6,29.84,SSW,200,7.2,8.3,58,0.00,,CLR,0.00,VWS V14.01,2013-04-29 13:16:00,
2013-04-29 08:17:00,58.3,43.6,29.84,South,172,6.3,7.6,58,0.00,,CLR,0.00,VWS V14.01,2013-04-29 13:17:00,
2013-04-29 08:18:00,58.5,43.8,29.84,SSE,164,8.7,8.7,58,0.00,,CLR,0.00,VWS V14.01,2013-04-29 13:18:00,
2013-04-29 08:19:00,58.5,43.8,29.84,SSE,149,7.6,8.7,58,0.00,,CLR,0.00,VWS V14.01,2013-04-29 13:19:00,
2013-04-29 08:21:00,58.6,43.9,29.84,South,170,8.3,8.3,58,0.00,,CLR,0.00,VWS V14.01,2013-04-29 13:21:00,
2013-04-29 08:22:00,58.8,44.1,29.84,SSE,168,10.1,10.1,58,0.00,,CLR,0.00,VWS V14.01,2013-04-29 13:22:00,
2013-04-29 08:23:00,58.8,44.1,29.84,South,171,7.6,10.1,58,0.00,,CLR,0.00,VWS V14.01,2013-04-29 13:23:00,
2013-04-29 08:24:00,58.8,44.1,29.84,SE,143,6.3,7.6,58,0.00,,CLR,0.00,VWS V14.01,2013-04-29 13:24:00,
2013-04-29 08:25:00,59.0,43.3,29.84,SE,126,5.4,8.3,56,0.00,,CLR,0.00,VWS V14.01,2013-04-29 13:25:00,
2013-04-29 08:26:00,59.0,43.3,29.84,South,169,12.8,12.8,56,0.00,,CLR,0.00,VWS V14.01,2013-04-29 13:26:00,
2013-04-29 08:28:00,59.4,43.7,29.84,SSE,167,8.1,8.1,56,0.00,,CLR,0.00,VWS V14.01,2013-04-29 13:28:00,
2013-04-29 08:29:00,59.4,43.7,29.84,South,171,7.6,8.7,56,0.00,,CLR,0.00,VWS V14.01,2013-04-29 13:29:00,
2013-04-29 08:31:00,59.5,42.9,29.84,SE,127,5.4,6.3,54,0.00,,CLR,0.00,VWS V14.01,2013-04-29 13:31:00,
2013-04-29 08:34:00,59.9,43.2,29.84,SSE,155,6.3,8.1,54,0.00,,CLR,0.00,VWS V14.01,2013-04-29 13:34:00,
2013-04-29 08:35:00,60.1,43.4,29.84,South,188,5.4,8.3,54,0.00,,CLR,0.00,VWS V14.01,2013-04-29 13:35:00,
2013-04-29 08:37:00,60.1,42.4,29.84,South,170,8.3,11.0,52,0.00,,CLR,0.00,VWS V14.01,2013-04-29 13:37:00,
2013-04-29 08:39:00,60.1,42.4,29.84,SW,221,8.1,11.0,52,0.00,,CLR,0.00,VWS V14.01,2013-04-29 13:39:00,
2013-04-29 08:40:00,60.3,42.6,29.84,SSE,166,8.7,8.7,52,0.00,,CLR,0.00,VWS V14.01,2013-04-29 13:40:00,
2013-04-29 08:42:00,60.4,42.8,29.84,SSE,160,5.8,8.1,52,0.00,,CLR,0.00,VWS V14.01,2013-04-29 13:42:00,
2013-04-29 08:44:00,60.4,42.8,29.84,South,182,5.8,8.7,52,0.00,,CLR,0.00,VWS V14.01,2013-04-29 13:44:00,
2013-04-29 08:45:00,60.6,42.9,29.84,South,178,8.3,8.3,52,0.00,,CLR,0.00,VWS V14.01,2013-04-29 13:45:00,
2013-04-29 08:46:00,60.6,43.9,29.84,South,178,5.8,8.3,54,0.00,,CLR,0.00,VWS V14.01,2013-04-29 13:46:00,
2013-04-29 08:47:00,60.6,43.9,29.84,SSW,206,8.1,8.3,54,0.00,,CLR,0.00,VWS V14.01,2013-04-29 13:47:00,
2013-04-29 08:48:00,60.8,43.1,29.84,SSE,158,5.8,7.6,52,0.00,,CLR,0.00,VWS V14.01,2013-04-29 13:48:00,
2013-04-29 08:49:00,61.0,43.2,29.84,SSE,163,4.5,8.1,52,0.00,,CLR,0.00,VWS V14.01,2013-04-29 13:49:00,
2013-04-29 08:51:00,61.0,42.2,29.84,South,173,5.8,8.1,50,0.00,,CLR,0.00,VWS V14.01,2013-04-29 13:51:00,
2013-04-29 08:52:00,61.2,42.4,29.84,SSW,197,10.1,10.1,50,0.00,,CLR,0.00,VWS V14.01,2013-04-29 13:52:00,
2013-04-29 08:53:00,61.3,42.6,29.84,South,191,10.5,10.5,50,0.00,,CLR,0.00,VWS V14.01,2013-04-29 13:53:00,
2013-04-29 08:55:00,61.3,42.6,29.84,South,180,8.1,8.7,50,0.00,,CLR,0.00,VWS V14.01,2013-04-29 13:55:00,
2013-04-29 08:56:00,61.5,42.7,29.84,South,177,8.1,8.3,50,0.00,,CLR,0.00,VWS V14.01,2013-04-29 13:56:00,
2013-04-29 08:57:00,61.5,42.7,29.84,South,184,4.0,8.1,50,0.00,,CLR,0.00,VWS V14.01,2013-04-29 13:57:00,
2013-04-29 08:58:00,61.7,42.9,29.84,South,170,6.3,8.7,50,0.00,,CLR,0.00,VWS V14.01,2013-04-29 13:58:00,
2013-04-29 08:59:00,61.7,42.9,29.84,South,183,8.7,8.7,50,0.00,,CLR,0.00,VWS V14.01,2013-04-29 13:59:00,
2013-04-29 09:00:00,61.7,42.9,29.84,South,183,10.1,10.1,50,0.00,,CLR,0.00,VWS V14.01,2013-04-29 14:00:00,
2013-04-29 09:02:00,61.9,43.1,29.84,South,169,8.7,8.7,50,0.00,,CLR,0.00,VWS V14.01,2013-04-29 14:02:00,
2013-04-29 09:03:00,62.1,43.2,29.84,South,189,10.5,12.8,50,0.00,,CLR,0.00,VWS V14.01,2013-04-29 14:03:00,
2013-04-29 09:04:00,62.1,42.2,29.84,SSW,193,10.5,11.9,48,0.00,,CLR,0.00,VWS V14.01,2013-04-29 14:04:00,
2013-04-29 09:06:00,62.2,42.3,29.84,SSW,208,11.0,11.0,48,0.00,,CLR,0.00,VWS V14.01,2013-04-29 14:06:00,
2013-04-29 09:07:00,62.2,42.3,29.84,SW,228,8.3,10.5,48,0.00,,CLR,0.00,VWS V14.01,2013-04-29 14:07:00,
2013-04-29 09:09:00,62.4,42.5,29.84,SSE,154,6.3,10.1,48,0.00,,CLR,0.00,VWS V14.01,2013-04-29 14:09:00,
2013-04-29 09:10:00,62.4,42.5,29.81,SSW,195,12.8,12.8,48,0.00,,CLR,0.00,VWS V14.01,2013-04-29 14:10:00,
2013-04-29 09:11:00,62.4,42.5,29.81,SSW,194,8.3,12.8,48,0.00,,CLR,0.00,VWS V14.01,2013-04-29 14:11:00,
2013-04-29 09:12:00,62.6,42.7,29.81,SSE,164,12.8,12.8,48,0.00,,CLR,0.00,VWS V14.01,2013-04-29 14:12:00,
2013-04-29 09:14:00,62.8,42.8,29.81,SW,218,8.3,8.7,48,0.00,,CLR,0.00,VWS V14.01,2013-04-29 14:14:00,
2013-04-29 09:15:00,63.0,43.0,29.81,SSE,153,5.8,7.6,48,0.00,,CLR,0.00,VWS V14.01,2013-04-29 14:15:00,
2013-04-29 09:16:00,63.0,43.0,29.81,South,182,5.8,8.3,48,0.00,,CLR,0.00,VWS V14.01,2013-04-29 14:16:00,
2013-04-29 09:17:00,63.0,43.0,29.81,South,185,7.6,8.1,48,0.00,,CLR,0.00,VWS V14.01,2013-04-29 14:17:00,
2013-04-29 09:20:00,63.5,43.5,29.81,SSE,150,7.2,7.2,48,0.00,,CLR,0.00,VWS V14.01,2013-04-29 14:20:00,
2013-04-29 09:21:00,63.7,43.6,29.81,SSE,152,6.3,6.3,48,0.00,,CLR,0.00,VWS V14.01,2013-04-29 14:21:00,
2013-04-29 09:22:00,63.9,43.8,29.81,South,173,8.1,8.3,48,0.00,,CLR,0.00,VWS V14.01,2013-04-29 14:22:00,
2013-04-29 09:25:00,64.2,43.0,29.81,SW,218,10.1,12.8,46,0.00,,CLR,0.00,VWS V14.01,2013-04-29 14:25:00,
2013-04-29 09:26:00,64.2,43.0,29.81,South,183,8.3,10.1,46,0.00,,CLR,0.00,VWS V14.01,2013-04-29 14:26:00,
2013-04-29 09:27:00,64.4,43.2,29.81,SSE,153,8.7,8.7,46,0.00,,CLR,0.00,VWS V14.01,2013-04-29 14:27:00,
2013-04-29 09:31:00,64.4,39.6,29.81,SSW,206,8.7,10.5,40,0.00,,CLR,0.00,VWS V14.01,2013-04-29 14:31:00,
2013-04-29 09:32:00,64.6,43.4,29.81,South,175,8.7,10.5,46,0.00,,CLR,0.00,VWS V14.01,2013-04-29 14:32:00,
2013-04-29 09:33:00,64.4,43.2,29.81,SW,221,12.3,12.3,46,0.00,,CLR,0.00,VWS V14.01,2013-04-29 14:33:00,
2013-04-29 09:36:00,64.8,43.5,29.81,South,172,7.6,7.6,46,0.00,,CLR,0.00,VWS V14.01,2013-04-29 14:36:00,
2013-04-29 09:37:00,64.8,43.5,29.81,South,170,10.1,10.1,46,0.00,,CLR,0.00,VWS V14.01,2013-04-29 14:37:00,
2013-04-29 09:38:00,64.9,43.7,29.81,South,169,8.3,10.1,46,0.00,,CLR,0.00,VWS V14.01,2013-04-29 14:38:00,
2013-04-29 09:39:00,64.9,40.1,29.81,SSE,162,8.3,12.3,40,0.00,,CLR,0.00,VWS V14.01,2013-04-29 14:39:00,
2013-04-29 09:41:00,65.1,43.8,29.81,South,190,12.3,12.3,46,0.00,,CLR,0.00,VWS V14.01,2013-04-29 14:41:00,
2013-04-29 09:43:00,65.3,40.4,29.81,South,186,12.8,12.8,40,0.00,,CLR,0.00,VWS V14.01,2013-04-29 14:43:00,
2013-04-29 09:44:00,65.3,44.0,29.81,South,180,10.1,10.1,46,0.00,,CLR,0.00,VWS V14.01,2013-04-29 14:44:00,
2013-04-29 09:47:00,65.3,44.0,29.81,SSE,148,8.3,10.1,46,0.00,,CLR,0.00,VWS V14.01,2013-04-29 14:47:00,
2013-04-29 09:48:00,65.5,44.2,29.81,South,176,12.8,12.8,46,0.00,,CLR,0.00,VWS V14.01,2013-04-29 14:48:00,
2013-04-29 09:49:00,65.5,44.2,29.81,South,188,10.5,12.8,46,0.00,,CLR,0.00,VWS V14.01,2013-04-29 14:49:00,
2013-04-29 09:50:00,65.5,40.5,29.81,South,190,10.1,12.3,40,0.00,,CLR,0.00,VWS V14.01,2013-04-29 14:50:00,
2013-04-29 09:52:00,65.5,40.5,29.81,South,179,8.7,12.3,40,0.00,,CLR,0.00,VWS V14.01,2013-04-29 14:52:00,
2013-04-29 09:54:00,65.8,40.9,29.81,South,185,11.0,13.2,40,0.00,,CLR,0.00,VWS V14.01,2013-04-29 14:54:00,
2013-04-29 09:56:00,66.0,44.7,29.81,South,181,8.3,8.7,46,0.00,,CLR,0.00,VWS V14.01,2013-04-29 14:56:00,
2013-04-29 09:57:00,66.2,43.7,29.81,SW,214,10.5,10.5,44,0.00,,CLR,0.00,VWS V14.01,2013-04-29 14:57:00,
2013-04-29 09:58:00,66.2,43.7,29.81,SW,215,10.5,10.5,44,0.00,,CLR,0.00,VWS V14.01,2013-04-29 14:58:00,
2013-04-29 09:59:00,66.4,41.3,29.81,South,191,11.0,11.0,40,0.00,,CLR,0.00,VWS V14.01,2013-04-29 14:59:00,
2013-04-29 10:00:00,66.4,41.3,29.81,SW,220,12.8,12.8,40,0.00,,CLR,0.00,VWS V14.01,2013-04-29 15:00:00,
2013-04-29 10:01:00,66.6,41.5,29.81,SSW,213,12.8,15.4,40,0.00,,CLR,0.00,VWS V14.01,2013-04-29 15:01:00,
2013-04-29 10:03:00,66.6,41.5,29.81,SE,139,9.2,9.2,40,0.00,,CLR,0.00,VWS V14.01,2013-04-29 15:03:00,
2013-04-29 10:04:00,66.6,41.5,29.81,SSE,147,8.3,8.3,40,0.00,,CLR,0.00,VWS V14.01,2013-04-29 15:04:00,
2013-04-29 10:05:00,66.6,41.5,29.81,South,172,10.1,10.1,40,0.00,,CLR,0.00,VWS V14.01,2013-04-29 15:05:00,
2013-04-29 10:06:00,66.7,41.7,29.81,SSW,211,11.4,11.4,40,0.00,,CLR,0.00,VWS V14.01,2013-04-29 15:06:00,
2013-04-29 10:09:00,67.3,42.2,29.81,South,189,9.6,13.2,40,0.00,,CLR,0.00,VWS V14.01,2013-04-29 15:09:00,
2013-04-29 10:10:00,67.5,42.3,29.81,SSE,168,10.1,10.1,40,0.00,,CLR,0.00,VWS V14.01,2013-04-29 15:10:00,
2013-04-29 10:11:00,67.6,42.5,29.81,SSW,197,12.8,12.8,40,0.00,,CLR,0.00,VWS V14.01,2013-04-29 15:11:00,
2013-04-29 10:12:00,67.8,42.6,29.81,SW,219,8.7,12.8,40,0.00,,CLR,0.00,VWS V14.01,2013-04-29 15:12:00,
2013-04-29 10:15:00,68.4,38.9,29.81,South,184,8.3,11.0,34,0.00,,CLR,0.00,VWS V14.01,2013-04-29 15:15:00,
2013-04-29 10:17:00,68.9,39.4,29.81,SSW,192,8.7,12.8,34,0.00,,CLR,0.00,VWS V14.01,2013-04-29 15:17:00,
2013-04-29 10:18:00,68.9,39.4,29.81,South,187,10.5,13.2,34,0.00,,CLR,0.00,VWS V14.01,2013-04-29 15:18:00,
2013-04-29 10:20:00,68.2,38.8,29.81,SW,219,13.2,14.5,34,0.00,,CLR,0.00,VWS V14.01,2013-04-29 15:20:00,
2013-04-29 10:21:00,68.2,38.8,29.81,SSW,195,10.5,15.4,34,0.00,,CLR,0.00,VWS V14.01,2013-04-29 15:21:00,
2013-04-29 10:22:00,67.8,38.5,29.81,South,180,12.8,14.1,34,0.00,,CLR,0.00,VWS V14.01,2013-04-29 15:22:00,
2013-04-29 10:24:00,67.6,42.5,29.81,South,179,11.0,11.9,40,0.00,,CLR,0.00,VWS V14.01,2013-04-29 15:24:00,
2013-04-29 10:25:00,67.6,42.5,29.81,South,183,12.3,12.3,40,0.00,,CLR,0.00,VWS V14.01,2013-04-29 15:25:00,
2013-04-29 10:27:00,67.5,42.3,29.81,South,179,10.1,14.1,40,0.00,,CLR,0.00,VWS V14.01,2013-04-29 15:27:00,
2013-04-29 10:30:00,67.6,42.5,29.81,SSE,162,10.5,11.9,40,0.00,,CLR,0.00,VWS V14.01,2013-04-29 15:30:00,
2013-04-29 10:31:00,67.6,42.5,29.81,South,191,11.0,11.0,40,0.00,,CLR,0.00,VWS V14.01,2013-04-29 15:31:00,
2013-04-29 10:32:00,67.6,42.5,29.81,South,174,11.0,11.4,40,0.00,,CLR,0.00,VWS V14.01,2013-04-29 15:32:00,
2013-04-29 10:33:00,67.8,42.6,29.81,South,175,12.3,12.3,40,0.00,,CLR,0.00,VWS V14.01,2013-04-29 15:33:00,
2013-04-29 10:36:00,68.4,43.1,29.81,South,170,10.5,10.5,40,0.00,,CLR,0.00,VWS V14.01,2013-04-29 15:36:00,
2013-04-29 10:37:00,68.5,43.3,29.81,South,172,12.3,15.0,40,0.00,,CLR,0.00,VWS V14.01,2013-04-29 15:37:00,
2013-04-29 10:39:00,68.4,43.1,29.81,South,170,10.1,12.3,40,0.00,,CLR,0.00,VWS V14.01,2013-04-29 15:39:00,
2013-04-29 10:41:00,68.2,43.0,29.78,SSW,201,12.8,12.8,40,0.00,,CLR,0.00,VWS V14.01,2013-04-29 15:41:00,
2013-04-29 10:42:00,68.2,43.0,29.78,SSE,148,7.2,10.5,40,0.00,,CLR,0.00,VWS V14.01,2013-04-29 15:42:00,
2013-04-29 10:43:00,68.2,43.0,29.78,SSW,210,9.6,10.5,40,0.00,,CLR,0.00,VWS V14.01,2013-04-29 15:43:00,
2013-04-29 10:45:00,68.4,43.1,29.78,South,190,10.5,11.0,40,0.00,,CLR,0.00,VWS V14.01,2013-04-29 15:45:00,
2013-04-29 10:46:00,68.5,43.3,29.78,SSE,158,10.5,12.3,40,0.00,,CLR,0.00,VWS V14.01,2013-04-29 15:46:00,
2013-04-29 10:48:00,68.5,43.3,29.78,South,179,12.8,12.8,40,0.00,,CLR,0.00,VWS V14.01,2013-04-29 15:48:00,
2013-04-29 10:49:00,68.7,43.5,29.78,SSW,197,15.4,15.4,40,0.00,,CLR,0.00,VWS V14.01,2013-04-29 15:49:00,
2013-04-29 10:52:00,68.9,43.6,29.78,South,191,12.8,15.9,40,0.00,,CLR,0.00,VWS V14.01,2013-04-29 15:52:00,
2013-04-29 10:53:00,68.9,43.6,29.78,South,189,12.3,12.8,40,0.00,,CLR,0.00,VWS V14.01,2013-04-29 15:53:00,
2013-04-29 10:54:00,69.3,43.9,29.78,SW,221,12.3,12.3,40,0.00,,CLR,0.00,VWS V14.01,2013-04-29 15:54:00,
2013-04-29 10:55:00,69.3,43.9,29.78,South,177,11.0,13.2,40,0.00,,CLR,0.00,VWS V14.01,2013-04-29 15:55:00,
2013-04-29 10:58:00,69.8,43.1,29.78,SSW,194,11.0,12.8,38,0.00,,CLR,0.00,VWS V14.01,2013-04-29 15:58:00,
2013-04-29 10:59:00,69.8,43.1,29.78,SSW,194,11.9,14.5,38,0.00,,CLR,0.00,VWS V14.01,2013-04-29 15:59:00,
2013-04-29 11:00:00,70.0,43.2,29.78,SSW,203,10.5,15.9,38,0.00,,CLR,0.00,VWS V14.01,2013-04-29 16:00:00,
2013-04-29 11:01:00,70.0,43.2,29.78,SSW,198,15.0,15.0,38,0.00,,CLR,0.00,VWS V14.01,2013-04-29 16:01:00,
2013-04-29 11:03:00,70.3,43.5,29.78,South,181,10.5,11.9,38,0.00,,CLR,0.00,VWS V14.01,2013-04-29 16:03:00,
2013-04-29 11:04:00,70.3,43.5,29.78,SSW,197,11.4,12.3,38,0.00,,CLR,0.00,VWS V14.01,2013-04-29 16:04:00,
2013-04-29 11:05:00,70.5,43.7,29.78,SSW,198,10.5,12.8,38,0.00,,CLR,0.00,VWS V14.01,2013-04-29 16:05:00,
2013-04-29 11:06:00,70.7,43.9,29.78,SSW,209,8.1,10.1,38,0.00,,CLR,0.00,VWS V14.01,2013-04-29 16:06:00,
2013-04-29 11:08:00,70.9,44.0,29.78,South,180,10.1,15.4,38,0.00,,CLR,0.00,VWS V14.01,2013-04-29 16:08:00,
2013-04-29 11:10:00,70.9,44.0,29.78,South,189,10.5,13.2,38,0.00,,CLR,0.00,VWS V14.01,2013-04-29 16:10:00,
2013-04-29 11:11:00,71.1,44.2,29.78,South,182,10.5,11.0,38,0.00,,CLR,0.00,VWS V14.01,2013-04-29 16:11:00,
2013-04-29 11:13:00,71.4,44.5,29.78,SW,220,8.1,8.1,38,0.00,,CLR,0.00,VWS V14.01,2013-04-29 16:13:00,
2013-04-29 11:16:00,71.8,44.8,29.78,SSE,163,9.6,12.8,38,0.00,,CLR,0.00,VWS V14.01,2013-04-29 16:16:00,
2013-04-29 11:18:00,72.0,45.0,29.78,South,172,11.0,13.2,38,0.00,,CLR,0.00,VWS V14.01,2013-04-29 16:18:00,
2013-04-29 11:21:00,72.0,40.5,29.78,SSW,205,10.5,15.0,32,0.00,,CLR,0.00,VWS V14.01,2013-04-29 16:21:00,
2013-04-29 11:22:00,72.0,40.5,29.78,SSW,199,15.4,15.4,32,0.00,,CLR,0.00,VWS V14.01,2013-04-29 16:22:00,
2013-04-29 11:24:00,72.0,40.5,29.78,South,187,13.2,13.2,32,0.00,,CLR,0.00,VWS V14.01,2013-04-29 16:24:00,
2013-04-29 11:26:00,72.1,40.7,29.78,SSW,197,10.1,10.5,32,0.00,,CLR,0.00,VWS V14.01,2013-04-29 16:26:00,
2013-04-29 11:28:00,72.5,45.5,29.78,SSE,152,8.3,8.3,38,0.00,,CLR,0.00,VWS V14.01,2013-04-29 16:28:00,
2013-04-29 11:29:00,72.7,45.6,29.78,South,181,8.1,8.3,38,0.00,,CLR,0.00,VWS V14.01,2013-04-29 16:29:00,
2013-04-29 11:31:00,73.0,41.5,29.78,South,187,8.3,11.0,32,0.00,,CLR,0.00,VWS V14.01,2013-04-29 16:31:00,
2013-04-29 11:32:00,73.2,46.1,29.78,South,169,10.5,10.5,38,0.00,,CLR,0.00,VWS V14.01,2013-04-29 16:32:00,
2013-04-29 11:34:00,73.4,41.8,29.78,South,183,7.6,10.5,32,0.00,,CLR,0.00,VWS V14.01,2013-04-29 16:34:00,
2013-04-29 11:35:00,73.6,41.9,29.78,SSE,166,8.7,8.7,32,0.00,,CLR,0.00,VWS V14.01,2013-04-29 16:35:00,
2013-04-29 11:36:00,73.8,42.1,29.78,SSW,195,12.8,12.8,32,0.00,,CLR,0.00,VWS V14.01,2013-04-29 16:36:00,
2013-04-29 11:37:00,73.8,42.1,29.78,South,182,11.0,12.8,32,0.00,,CLR,0.00,VWS V14.01,2013-04-29 16:37:00,
2013-04-29 11:39:00,74.1,42.4,29.78,SSE,168,4.0,9.6,32,0.00,,CLR,0.00,VWS V14.01,2013-04-29 16:39:00,
2013-04-29 11:40:00,74.1,45.5,29.78,SW,214,12.8,12.8,36,0.00,,CLR,0.00,VWS V14.01,2013-04-29 16:40:00,
2013-04-29 11:41:00,74.3,42.6,29.78,SSE,162,12.3,13.2,32,0.00,,CLR,0.00,VWS V14.01,2013-04-29 16:41:00,
2013-04-29 11:42:00,74.3,42.6,29.78,South,169,10.5,12.3,32,0.00,,CLR,0.00,VWS V14.01,2013-04-29 16:42:00,
2013-04-29 11:43:00,74.3,42.6,29.78,South,169,11.4,13.2,32,0.00,,CLR,0.00,VWS V14.01,2013-04-29 16:43:00,
2013-04-29 11:44:00,74.5,42.7,29.78,SE,143,4.0,11.4,32,0.00,,CLR,0.00,VWS V14.01,2013-04-29 16:44:00,
2013-04-29 11:46:00,74.5,42.7,29.78,SSW,204,10.5,10.5,32,0.00,,CLR,0.00,VWS V14.01,2013-04-29 16:46:00,
2013-04-29 11:47:00,74.7,42.9,29.78,SSE,161,12.3,12.3,32,0.00,,CLR,0.00,VWS V14.01,2013-04-29 16:47:00,
2013-04-29 11:49:00,74.8,43.0,29.78,South,191,12.8,12.8,32,0.00,,CLR,0.00,VWS V14.01,2013-04-29 16:49:00,
2013-04-29 11:50:00,74.8,43.0,29.78,SSE,148,8.1,12.3,32,0.00,,CLR,0.00,VWS V14.01,2013-04-29 16:50:00,
2013-04-29 11:51:00,75.0,43.2,29.78,SSE,160,11.4,11.4,32,0.00,,CLR,0.00,VWS V14.01,2013-04-29 16:51:00,
2013-04-29 11:52:00,75.0,43.2,29.78,SSE,159,10.5,11.4,32,0.00,,CLR,0.00,VWS V14.01,2013-04-29 16:52:00,
2013-04-29 11:53:00,74.8,43.0,29.78,SSW,198,5.4,12.8,32,0.00,,CLR,0.00,VWS V14.01,2013-04-29 16:53:00,
2013-04-29 11:54:00,75.0,43.2,29.75,SSE,161,8.3,12.8,32,0.00,,CLR,0.00,VWS V14.01,2013-04-29 16:54:00,
2013-04-29 11:55:00,75.0,43.2,29.75,ESE,123,8.7,8.7,32,0.00,,CLR,0.00,VWS V14.01,2013-04-29 16:55:00,
2013-04-29 11:57:00,75.4,41.8,29.75,South,178,8.3,9.2,30,0.00,,CLR,0.00,VWS V14.01,2013-04-29 16:57:00,
2013-04-29 11:59:00,75.6,42.0,29.75,SSE,155,8.7,8.7,30,0.00,,CLR,0.00,VWS V14.01,2013-04-29 16:59:00,
2013-04-29 12:00:00,75.6,42.0,29.75,SSW,200,13.2,13.2,30,0.00,,CLR,0.00,VWS V14.01,2013-04-29 17:00:00,
2013-04-29 12:02:00,75.6,42.0,29.75,SSW,192,10.5,10.5,30,0.00,,CLR,0.00,VWS V14.01,2013-04-29 17:02:00,
2013-04-29 12:03:00,75.6,42.0,29.75,SE,140,10.1,11.0,30,0.00,,CLR,0.00,VWS V14.01,2013-04-29 17:03:00,
2013-04-29 12:04:00,75.7,42.1,29.75,ESE,123,9.2,9.2,30,0.00,,CLR,0.00,VWS V14.01,2013-04-29 17:04:00,
2013-04-29 12:05:00,75.7,42.1,29.75,SW,215,9.6,9.6,30,0.00,,CLR,0.00,VWS V14.01,2013-04-29 17:05:00,
2013-04-29 12:09:00,75.9,42.3,29.75,SSE,160,8.1,10.1,30,0.00,,CLR,0.00,VWS V14.01,2013-04-29 17:09:00,
2013-04-29 12:10:00,76.1,42.5,29.75,SE,128,10.5,13.2,30,0.00,,CLR,0.00,VWS V14.01,2013-04-29 17:10:00,
2013-04-29 12:11:00,76.3,42.6,29.75,SE,146,7.6,12.3,30,0.00,,CLR,0.00,VWS V14.01,2013-04-29 17:11:00,
2013-04-29 12:13:00,76.5,42.8,29.75,South,173,11.0,12.3,30,0.00,,CLR,0.00,VWS V14.01,2013-04-29 17:13:00,
2013-04-29 12:14:00,76.6,42.9,29.75,South,180,7.6,11.0,30,0.00,,CLR,0.00,VWS V14.01,2013-04-29 17:14:00,
2013-04-29 12:15:00,76.6,39.2,29.75,SSW,193,10.1,12.3,26,0.00,,CLR,0.00,VWS V14.01,2013-04-29 17:15:00,
2013-04-29 12:17:00,76.8,43.1,29.75,South,170,11.9,13.2,30,0.00,,CLR,0.00,VWS V14.01,2013-04-29 17:17:00,
2013-04-29 12:18:00,76.8,43.1,29.75,South,187,8.7,13.2,30,0.00,,CLR,0.00,VWS V14.01,2013-04-29 17:18:00,
2013-04-29 12:19:00,76.8,43.1,29.75,SSW,210,11.0,11.0,30,0.00,,CLR,0.00,VWS V14.01,2013-04-29 17:19:00,
2013-04-29 12:20:00,77.0,43.2,29.75,South,180,8.3,8.7,30,0.00,,CLR,0.00,VWS V14.01,2013-04-29 17:20:00,
2013-04-29 12:22:00,77.0,43.2,29.75,SSW,193,13.2,13.2,30,0.00,,CLR,0.00,VWS V14.01,2013-04-29 17:22:00,
2013-04-29 12:24:00,77.0,43.2,29.75,SSW,201,15.0,15.0,30,0.00,,CLR,0.00,VWS V14.01,2013-04-29 17:24:00,
2013-04-29 12:26:00,77.0,39.5,29.75,South,175,11.0,15.4,26,0.00,,CLR,0.00,VWS V14.01,2013-04-29 17:26:00,
2013-04-29 12:27:00,77.2,43.4,29.75,SSE,163,13.2,15.0,30,0.00,,CLR,0.00,VWS V14.01,2013-04-29 17:27:00,
2013-04-29 12:29:00,77.2,39.7,29.75,SSE,164,9.2,13.2,26,0.00,,CLR,0.00,VWS V14.01,2013-04-29 17:29:00,
2013-04-29 12:31:00,77.4,43.5,29.75,SW,215,12.8,13.2,30,0.00,,CLR,0.00,VWS V14.01,2013-04-29 17:31:00,
2013-04-29 12:34:00,77.4,43.5,29.75,SSW,197,12.8,17.4,30,0.00,,CLR,0.00,VWS V14.01,2013-04-29 17:34:00,
2013-04-29 12:36:00,77.4,39.8,29.75,South,171,15.4,16.3,26,0.00,,CLR,0.00,VWS V14.01,2013-04-29 17:36:00,
2013-04-29 12:37:00,77.4,39.8,29.75,South,179,10.5,13.2,26,0.00,,CLR,0.00,VWS V14.01,2013-04-29 17:37:00,
2013-04-29 12:39:00,77.5,40.0,29.72,SSW,192,9.2,10.1,26,0.00,,CLR,0.00,VWS V14.01,2013-04-29 17:39:00,
2013-04-29 12:40:00,77.7,43.8,29.72,SSW,193,11.0,11.0,30,0.00,,CLR,0.00,VWS V14.01,2013-04-29 17:40:00,
2013-04-29 12:41:00,77.7,40.1,29.72,SSW,197,8.7,11.0,26,0.00,,CLR,0.00,VWS V14.01,2013-04-29 17:41:00,
2013-04-29 12:42:00,77.9,44.0,29.72,SSE,156,10.5,10.5,30,0.00,,CLR,0.00,VWS V14.01,2013-04-29 17:42:00,
2013-04-29 12:46:00,78.3,40.6,29.72,SSE,156,12.3,16.3,26,0.00,,CLR,0.00,VWS V14.01,2013-04-29 17:46:00,
2013-04-29 12:47:00,78.4,40.8,29.72,ESE,105,12.8,12.8,26,0.00,,CLR,0.00,VWS V14.01,2013-04-29 17:47:00,
2013-04-29 12:48:00,78.4,40.8,29.72,SSE,161,12.3,12.3,26,0.00,,CLR,0.00,VWS V14.01,2013-04-29 17:48:00,
2013-04-29 12:51:00,78.4,40.8,29.72,East,97,9.6,15.0,26,0.00,,CLR,0.00,VWS V14.01,2013-04-29 17:51:00,
2013-04-29 12:52:00,78.8,44.8,29.72,South,171,11.0,12.3,30,0.00,,CLR,0.00,VWS V14.01,2013-04-29 17:52:00,
2013-04-29 12:53:00,78.6,40.9,29.72,South,189,11.0,11.0,26,0.00,,CLR,0.00,VWS V14.01,2013-04-29 17:53:00,
2013-04-29 12:54:00,78.8,39.0,29.72,South,170,14.5,15.4,24,0.00,,CLR,0.00,VWS V14.01,2013-04-29 17:54:00,
2013-04-29 12:56:00,78.8,39.0,29.72,SSE,161,12.8,12.8,24,0.00,,CLR,0.00,VWS V14.01,2013-04-29 17:56:00,
2013-04-29 12:57:00,78.8,39.0,29.72,South,170,13.6,13.6,24,0.00,,CLR,0.00,VWS V14.01,2013-04-29 17:57:00,
2013-04-29 12:58:00,78.8,39.0,29.72,South,177,8.7,13.6,24,0.00,,CLR,0.00,VWS V14.01,2013-04-29 17:58:00,
2013-04-29 12:59:00,79.0,39.2,29.72,South,180,12.8,15.0,24,0.00,,CLR,0.00,VWS V14.01,2013-04-29 17:59:00,
2013-04-29 13:02:00,79.2,45.1,29.72,WSW,243,5.4,8.3,30,0.00,,CLR,0.00,VWS V14.01,2013-04-29 18:02:00,
2013-04-29 13:03:00,79.2,39.3,29.72,South,177,11.0,11.0,24,0.00,,CLR,0.00,VWS V14.01,2013-04-29 18:03:00,
2013-04-29 13:04:00,79.3,39.5,29.72,South,177,11.0,17.0,24,0.00,,CLR,0.00,VWS V14.01,2013-04-29 18:04:00,
2013-04-29 13:08:00,79.7,39.8,29.72,SSE,168,10.5,11.0,24,0.00,,CLR,0.00,VWS V14.01,2013-04-29 18:08:00,
2013-04-29 13:09:00,79.5,39.6,29.72,SSE,157,13.2,14.1,24,0.00,,CLR,0.00,VWS V14.01,2013-04-29 18:09:00,
2013-04-29 13:10:00,79.7,39.8,29.72,SSW,197,16.3,16.3,24,0.00,,CLR,0.00,VWS V14.01,2013-04-29 18:10:00,
2013-04-29 13:13:00,79.7,39.8,29.72,South,185,9.2,12.8,24,0.00,,CLR,0.00,VWS V14.01,2013-04-29 18:13:00,
2013-04-29 13:14:00,79.7,39.8,29.72,South,170,15.9,15.9,24,0.00,,CLR,0.00,VWS V14.01,2013-04-29 18:14:00,
2013-04-29 13:15:00,79.5,39.6,29.72,South,169,16.8,16.8,24,0.00,,CLR,0.00,VWS V14.01,2013-04-29 18:15:00,
2013-04-29 13:16:00,79.7,39.8,29.72,SE,135,8.3,11.4,24,0.00,,CLR,0.00,VWS V14.01,2013-04-29 18:16:00,
2013-04-29 13:18:00,79.7,39.8,29.72,South,177,9.6,11.0,24,0.00,,CLR,0.00,VWS V14.01,2013-04-29 18:18:00,
2013-04-29 13:19:00,79.7,39.8,29.72,SSW,192,11.9,11.9,24,0.00,,CLR,0.00,VWS V14.01,2013-04-29 18:19:00,
2013-04-29 13:21:00,79.9,39.9,29.72,SSW,204,13.2,13.2,24,0.00,,CLR,0.00,VWS V14.01,2013-04-29 18:21:00,
2013-04-29 13:24:00,80.1,40.1,29.72,South,187,12.8,12.8,24,0.00,,CLR,0.00,VWS V14.01,2013-04-29 18:24:00,
2013-04-29 13:25:00,80.1,40.1,29.72,South,176,15.0,15.0,24,0.00,,CLR,0.00,VWS V14.01,2013-04-29 18:25:00,
2013-04-29 13:26:00,80.1,40.1,29.72,SE,128,10.5,15.0,24,0.00,,CLR,0.00,VWS V14.01,2013-04-29 18:26:00,
2013-04-29 13:29:00,80.6,40.5,29.72,South,180,8.1,9.2,24,0.00,,CLR,0.00,VWS V14.01,2013-04-29 18:29:00,
2013-04-29 13:31:00,80.8,40.7,29.72,South,185,10.5,13.2,24,0.00,,CLR,0.00,VWS V14.01,2013-04-29 18:31:00,
2013-04-29 13:32:00,80.8,40.7,29.72,ESE,109,12.8,14.1,24,0.00,,CLR,0.00,VWS V14.01,2013-04-29 18:32:00,
2013-04-29 13:33:00,80.8,40.7,29.72,South,172,12.8,12.8,24,0.00,,CLR,0.00,VWS V14.01,2013-04-29 18:33:00,
2013-04-29 13:35:00,81.1,41.0,29.72,SSE,153,16.8,16.8,24,0.00,,CLR,0.00,VWS V14.01,2013-04-29 18:35:00,
2013-04-29 13:36:00,81.1,41.0,29.72,South,173,10.5,10.5,24,0.00,,CLR,0.00,VWS V14.01,2013-04-29 18:36:00,
2013-04-29 13:37:00,81.1,41.0,29.72,South,175,12.8,12.8,24,0.00,,CLR,0.00,VWS V14.01,2013-04-29 18:37:00,
2013-04-29 13:38:00,81.1,41.0,29.72,South,181,13.2,17.4,24,0.00,,CLR,0.00,VWS V14.01,2013-04-29 18:38:00,
2013-04-29 13:40:00,81.3,41.1,29.70,SSW,198,17.0,17.0,24,0.00,,CLR,0.00,VWS V14.01,2013-04-29 18:40:00,
2013-04-29 13:42:00,81.3,41.1,29.70,South,171,14.5,17.4,24,0.00,,CLR,0.00,VWS V14.01,2013-04-29 18:42:00,
2013-04-29 13:44:00,81.5,41.3,29.70,South,185,17.0,20.6,24,0.00,,CLR,0.00,VWS V14.01,2013-04-29 18:44:00,
2013-04-29 13:46:00,81.5,41.3,29.70,South,173,12.8,15.0,24,0.00,,CLR,0.00,VWS V14.01,2013-04-29 18:46:00,
2013-04-29 13:47:00,81.5,41.3,29.70,South,179,13.2,19.2,24,0.00,,CLR,0.00,VWS V14.01,2013-04-29 18:47:00,
2013-04-29 13:49:00,81.9,41.6,29.70,South,187,15.0,15.0,24,0.00,,CLR,0.00,VWS V14.01,2013-04-29 18:49:00,
2013-04-29 13:51:00,82.0,41.7,29.70,SSW,194,10.5,10.5,24,0.00,,CLR,0.00,VWS V14.01,2013-04-29 18:51:00,
2013-04-29 13:52:00,82.2,41.9,29.70,South,184,12.3,12.3,24,0.00,,CLR,0.00,VWS V14.01,2013-04-29 18:52:00,
2013-04-29 13:53:00,82.0,41.7,29.70,South,171,10.5,14.1,24,0.00,,CLR,0.00,VWS V14.01,2013-04-29 18:53:00,
2013-04-29 13:54:00,82.0,41.7,29.70,SSE,157,13.2,13.2,24,0.00,,CLR,0.00,VWS V14.01,2013-04-29 18:54:00,
2013-04-29 13:55:00,81.9,41.6,29.70,South,177,15.4,15.4,24,0.00,,CLR,0.00,VWS V14.01,2013-04-29 18:55:00,
2013-04-29 13:57:00,81.9,41.6,29.70,South,183,21.9,21.9,24,0.00,,CLR,0.00,VWS V14.01,2013-04-29 18:57:00,
2013-04-29 13:58:00,81.7,41.4,29.70,SSW,197,15.0,21.9,24,0.00,,CLR,0.00,VWS V14.01,2013-04-29 18:58:00,
2013-04-29 14:00:00,81.7,41.4,29.70,SSE,168,17.4,17.4,24,0.00,,CLR,0.00,VWS V14.01,2013-04-29 19:00:00,
2013-04-29 14:02:00,81.7,41.4,29.70,SW,216,11.0,13.6,24,0.00,,CLR,0.00,VWS V14.01,2013-04-29 19:02:00,
2013-04-29 14:03:00,81.9,41.6,29.70,SSE,154,12.8,12.8,24,0.00,,CLR,0.00,VWS V14.01,2013-04-29 19:03:00,
2013-04-29 14:05:00,81.7,41.4,29.70,SE,133,15.4,17.9,24,0.00,,CLR,0.00,VWS V14.01,2013-04-29 19:05:00,
2013-04-29 14:06:00,81.9,41.6,29.70,SSW,193,12.8,17.4,24,0.00,,CLR,0.00,VWS V14.01,2013-04-29 19:06:00,
2013-04-29 14:07:00,81.7,41.4,29.70,SSW,204,11.0,16.3,24,0.00,,CLR,0.00,VWS V14.01,2013-04-29 19:07:00,
2013-04-29 14:09:00,81.5,41.3,29.70,SE,126,17.0,17.0,24,0.00,,CLR,0.00,VWS V14.01,2013-04-29 19:09:00,
2013-04-29 14:10:00,81.3,41.1,29.67,SSE,158,12.3,12.8,24,0.00,,CLR,0.00,VWS V14.01,2013-04-29 19:10:00,
2013-04-29 14:11:00,81.3,41.1,29.67,SSE,164,14.5,14.5,24,0.00,,CLR,0.00,VWS V14.01,2013-04-29 19:11:00,
2013-04-29 14:14:00,81.3,41.1,29.67,SSE,167,14.1,14.1,24,0.00,,CLR,0.00,VWS V14.01,2013-04-29 19:14:00,
2013-04-29 14:15:00,81.3,41.1,29.67,South,189,12.8,15.4,24,0.00,,CLR,0.00,VWS V14.01,2013-04-29 19:15:00,
2013-04-29 14:16:00,81.3,41.1,29.67,SSE,154,6.7,15.4,24,0.00,,CLR,0.00,VWS V14.01,2013-04-29 19:16:00,
2013-04-29 14:20:00,81.3,41.1,29.67,SSE,160,15.0,15.0,24,0.00,,CLR,0.00,VWS V14.01,2013-04-29 19:20:00,
2013-04-29 14:21:00,81.5,41.3,29.67,South,179,13.2,15.0,24,0.00,,CLR,0.00,VWS V14.01,2013-04-29 19:21:00,
2013-04-29 14:22:00,81.3,41.1,29.67,South,184,13.6,13.6,24,0.00,,CLR,0.00,VWS V14.01,2013-04-29 19:22:00,
2013-04-29 14:24:00,81.0,40.8,29.67,South,183,12.8,12.8,24,0.00,,CLR,0.00,VWS V14.01,2013-04-29 19:24:00,
2013-04-29 14:27:00,81.0,40.8,29.67,South,183,12.8,14.1,24,0.00,,CLR,0.00,VWS V14.01,2013-04-29 19:27:00,
2013-04-29 14:29:00,81.1,41.0,29.67,SSW,207,13.2,13.2,24,0.00,,CLR,0.00,VWS V14.01,2013-04-29 19:29:00,
2013-04-29 14:32:00,81.5,41.3,29.67,SSE,159,15.0,15.0,24,0.00,,CLR,0.00,VWS V14.01,2013-04-29 19:32:00,
2013-04-29 14:33:00,81.5,41.3,29.67,SSE,168,17.0,17.0,24,0.00,,CLR,0.00,VWS V14.01,2013-04-29 19:33:00,
2013-04-29 14:34:00,81.5,41.3,29.67,South,188,15.0,15.0,24,0.00,,CLR,0.00,VWS V14.01,2013-04-29 19:34:00,
2013-04-29 14:35:00,81.7,41.4,29.67,SSE,155,13.2,15.0,24,0.00,,CLR,0.00,VWS V14.01,2013-04-29 19:35:00,
2013-04-29 14:38:00,82.2,41.9,29.67,SSW,198,10.1,12.8,24,0.00,,CLR,0.00,VWS V14.01,2013-04-29 19:38:00,
2013-04-29 14:39:00,82.6,39.9,29.67,South,185,15.0,15.0,22,0.00,,CLR,0.00,VWS V14.01,2013-04-29 19:39:00,
2013-04-29 14:41:00,82.6,39.9,29.67,SSW,208,15.0,15.0,22,0.00,,CLR,0.00,VWS V14.01,2013-04-29 19:41:00,
2013-04-29 14:43:00,82.8,40.1,29.67,SW,220,17.0,17.0,22,0.00,,CLR,0.00,VWS V14.01,2013-04-29 19:43:00,
2013-04-29 14:44:00,82.9,40.2,29.67,SSE,163,7.6,11.4,22,0.00,,CLR,0.00,VWS V14.01,2013-04-29 19:44:00,
2013-04-29 14:45:00,83.1,40.4,29.67,SSE,161,12.3,12.3,22,0.00,,CLR,0.00,VWS V14.01,2013-04-29 19:45:00,
2013-04-29 14:47:00,83.3,40.5,29.67,South,182,16.8,16.8,22,0.00,,CLR,0.00,VWS V14.01,2013-04-29 19:47:00,
2013-04-29 14:48:00,83.5,40.7,29.67,SSE,167,13.2,16.8,22,0.00,,CLR,0.00,VWS V14.01,2013-04-29 19:48:00,
2013-04-29 14:50:00,83.8,41.0,29.67,SSW,195,13.2,13.2,22,0.00,,CLR,0.00,VWS V14.01,2013-04-29 19:50:00,
2013-04-29 14:52:00,84.4,41.4,29.67,SSE,158,8.3,8.3,22,0.00,,CLR,0.00,VWS V14.01,2013-04-29 19:52:00,
2013-04-29 14:53:00,84.4,41.4,29.67,SE,132,7.6,8.7,22,0.00,,CLR,0.00,VWS V14.01,2013-04-29 19:53:00,
2013-04-29 14:55:00,84.7,41.7,29.67,ESE,109,7.6,11.9,22,0.00,,CLR,0.00,VWS V14.01,2013-04-29 19:55:00,
2013-04-29 14:58:00,85.1,42.0,29.67,South,173,13.2,13.2,22,0.00,,CLR,0.00,VWS V14.01,2013-04-29 19:58:00,
2013-04-29 15:00:00,85.1,42.0,29.67,South,179,10.5,15.0,22,0.00,,CLR,0.00,VWS V14.01,2013-04-29 20:00:00,
2013-04-29 15:03:00,85.1,42.0,29.67,South,180,12.8,15.0,22,0.00,,CLR,0.00,VWS V14.01,2013-04-29 20:03:00,
2013-04-29 15:05:00,85.3,42.2,29.67,South,190,8.7,8.7,22,0.00,,CLR,0.00,VWS V14.01,2013-04-29 20:05:00,
2013-04-29 15:06:00,85.3,42.2,29.67,SSE,160,8.3,13.2,22,0.00,,CLR,0.00,VWS V14.01,2013-04-29 20:06:00,
2013-04-29 15:08:00,85.1,42.0,29.67,SSE,161,15.4,16.8,22,0.00,,CLR,0.00,VWS V14.01,2013-04-29 20:08:00,
2013-04-29 15:11:00,84.9,41.9,29.67,SSE,155,16.8,21.0,22,0.00,,CLR,0.00,VWS V14.01,2013-04-29 20:11:00,
2013-04-29 15:12:00,84.7,41.7,29.67,South,181,22.4,22.4,22,0.00,,CLR,0.00,VWS V14.01,2013-04-29 20:12:00,
2013-04-29 15:14:00,84.7,41.7,29.67,SSE,149,15.4,17.4,22,0.00,,CLR,0.00,VWS V14.01,2013-04-29 20:14:00,
2013-04-29 15:16:00,84.7,41.7,29.67,SSE,152,10.1,14.1,22,0.00,,CLR,0.00,VWS V14.01,2013-04-29 20:16:00,
2013-04-29 15:17:00,84.7,41.7,29.67,South,170,15.4,17.4,22,0.00,,CLR,0.00,VWS V14.01,2013-04-29 20:17:00,
2013-04-29 15:20:00,84.9,41.9,29.67,South,171,11.0,12.8,22,0.00,,CLR,0.00,VWS V14.01,2013-04-29 20:20:00,
2013-04-29 15:22:00,84.7,41.7,29.67,WSW,237,11.0,17.4,22,0.00,,CLR,0.00,VWS V14.01,2013-04-29 20:22:00,
2013-04-29 15:23:00,84.7,41.7,29.67,SSE,148,16.8,16.8,22,0.00,,CLR,0.00,VWS V14.01,2013-04-29 20:23:00,
2013-04-29 15:25:00,84.6,41.6,29.64,SSW,212,17.0,17.0,22,0.00,,CLR,0.00,VWS V14.01,2013-04-29 20:25:00,
2013-04-29 15:27:00,84.4,41.4,29.64,South,184,18.3,18.3,22,0.00,,CLR,0.00,VWS V14.01,2013-04-29 20:27:00,
2013-04-29 15:28:00,84.2,41.3,29.64,South,190,12.8,15.4,22,0.00,,CLR,0.00,VWS V14.01,2013-04-29 20:28:00,
2013-04-29 15:29:00,84.4,41.4,29.64,SSW,196,15.4,15.4,22,0.00,,CLR,0.00,VWS V14.01,2013-04-29 20:29:00,
2013-04-29 15:31:00,84.2,41.3,29.64,South,175,20.6,20.6,22,0.00,,CLR,0.00,VWS V14.01,2013-04-29 20:31:00,
2013-04-29 15:32:00,84.4,41.4,29.64,South,171,13.6,17.4,22,0.00,,CLR,0.00,VWS V14.01,2013-04-29 20:32:00,
2013-04-29 15:33:00,84.6,41.6,29.64,South,178,15.4,15.4,22,0.00,,CLR,0.00,VWS V14.01,2013-04-29 20:33:00,
2013-04-29 15:34:00,84.7,41.7,29.64,SSE,168,11.9,13.2,22,0.00,,CLR,0.00,VWS V14.01,2013-04-29 20:34:00,
2013-04-29 15:35:00,84.7,41.7,29.64,South,188,10.1,13.2,22,0.00,,CLR,0.00,VWS V14.01,2013-04-29 20:35:00,
2013-04-29 15:37:00,84.9,41.9,29.64,SSW,205,16.8,17.4,22,0.00,,CLR,0.00,VWS V14.01,2013-04-29 20:37:00,
2013-04-29 15:38:00,85.1,42.0,29.64,SW,229,14.5,17.4,22,0.00,,CLR,0.00,VWS V14.01,2013-04-29 20:38:00,
2013-04-29 15:39:00,85.1,42.0,29.64,SE,142,13.2,15.4,22,0.00,,CLR,0.00,VWS V14.01,2013-04-29 20:39:00,
2013-04-29 15:40:00,85.1,42.0,29.64,SW,220,15.9,15.9,22,0.00,,CLR,0.00,VWS V14.01,2013-04-29 20:40:00,
2013-04-29 15:43:00,85.1,42.0,29.64,SSE,167,17.4,17.4,22,0.00,,CLR,0.00,VWS V14.01,2013-04-29 20:43:00,
2013-04-29 15:44:00,85.1,42.0,29.64,SW,229,17.4,21.5,22,0.00,,CLR,0.00,VWS V14.01,2013-04-29 20:44:00,
2013-04-29 15:45:00,85.3,42.2,29.64,SW,217,17.4,19.7,22,0.00,,CLR,0.00,VWS V14.01,2013-04-29 20:45:00,
2013-04-29 15:46:00,85.1,42.0,29.64,SSW,208,15.4,19.7,22,0.00,,CLR,0.00,VWS V14.01,2013-04-29 20:46:00,
2013-04-29 15:48:00,84.9,41.9,29.64,SSE,163,17.0,17.0,22,0.00,,CLR,0.00,VWS V14.01,2013-04-29 20:48:00,
2013-04-29 15:49:00,84.9,41.9,29.64,SSE,157,11.0,17.0,22,0.00,,CLR,0.00,VWS V14.01,2013-04-29 20:49:00,
2013-04-29 15:50:00,84.7,41.7,29.64,South,169,15.4,16.3,22,0.00,,CLR,0.00,VWS V14.01,2013-04-29 20:50:00,
2013-04-29 15:51:00,84.7,41.7,29.64,South,175,12.8,15.0,22,0.00,,CLR,0.00,VWS V14.01,2013-04-29 20:51:00,
2013-04-29 15:54:00,85.1,42.0,29.64,South,178,15.0,17.4,22,0.00,,CLR,0.00,VWS V14.01,2013-04-29 20:54:00,
2013-04-29 15:55:00,85.1,42.0,29.64,SSE,156,17.4,17.4,22,0.00,,CLR,0.00,VWS V14.01,2013-04-29 20:55:00,
2013-04-29 15:56:00,85.1,42.0,29.64,South,183,17.4,17.4,22,0.00,,CLR,0.00,VWS V14.01,2013-04-29 20:56:00,
2013-04-29 15:57:00,85.1,42.0,29.64,South,187,15.0,17.4,22,0.00,,CLR,0.00,VWS V14.01,2013-04-29 20:57:00,
2013-04-29 15:59:00,85.5,42.3,29.64,South,170,12.8,13.2,22,0.00,,CLR,0.00,VWS V14.01,2013-04-29 20:59:00,
2013-04-29 16:00:00,85.5,42.3,29.64,SSW,195,12.8,13.2,22,0.00,,CLR,0.00,VWS V14.01,2013-04-29 21:00:00,
2013-04-29 16:01:00,85.6,42.5,29.64,WSW,252,8.7,8.7,22,0.00,,CLR,0.00,VWS V14.01,2013-04-29 21:01:00,
2013-04-29 16:03:00,85.5,42.3,29.64,SE,143,15.4,15.4,22,0.00,,CLR,0.00,VWS V14.01,2013-04-29 21:03:00,
2013-04-29 16:05:00,85.1,42.0,29.64,SSE,157,11.0,12.3,22,0.00,,CLR,0.00,VWS V14.01,2013-04-29 21:05:00,
2013-04-29 16:06:00,85.1,42.0,29.64,SSE,159,11.0,12.3,22,0.00,,CLR,0.00,VWS V14.01,2013-04-29 21:06:00,
2013-04-29 16:07:00,85.1,42.0,29.64,SSE,151,13.2,15.0,22,0.00,,CLR,0.00,VWS V14.01,2013-04-29 21:07:00,
2013-04-29 16:08:00,85.1,42.0,29.64,SSW,192,12.8,16.8,22,0.00,,CLR,0.00,VWS V14.01,2013-04-29 21:08:00,
2013-04-29 16:11:00,85.3,42.2,29.64,South,178,12.8,18.8,22,0.00,,CLR,0.00,VWS V14.01,2013-04-29 21:11:00,
2013-04-29 16:12:00,85.3,42.2,29.64,SSW,195,8.1,11.0,22,0.00,,CLR,0.00,VWS V14.01,2013-04-29 21:12:00,
2013-04-29 16:13:00,85.3,42.2,29.64,South,189,15.4,15.4,22,0.00,,CLR,0.00,VWS V14.01,2013-04-29 21:13:00,
2013-04-29 16:15:00,85.3,42.2,29.64,SSW,209,12.8,13.2,22,0.00,,CLR,0.00,VWS V14.01,2013-04-29 21:15:00,
2013-04-29 16:17:00,85.1,42.0,29.64,SSW,200,15.0,20.1,22,0.00,,CLR,0.00,VWS V14.01,2013-04-29 21:17:00,
2013-04-29 16:18:00,85.3,42.2,29.64,SSW,194,10.5,14.5,22,0.00,,CLR,0.00,VWS V14.01,2013-04-29 21:18:00,
2013-04-29 16:19:00,85.3,42.2,29.64,South,176,15.4,16.3,22,0.00,,CLR,0.00,VWS V14.01,2013-04-29 21:19:00,
2013-04-29 16:22:00,84.9,41.9,29.64,South,174,15.9,18.3,22,0.00,,CLR,0.00,VWS V14.01,2013-04-29 21:22:00,
2013-04-29 16:23:00,84.9,41.9,29.64,South,187,15.0,16.8,22,0.00,,CLR,0.00,VWS V14.01,2013-04-29 21:23:00,
2013-04-29 16:24:00,84.9,41.9,29.64,South,187,15.0,16.8,22,0.00,,CLR,0.00,VWS V14.01,2013-04-29 21:24:00,
2013-04-29 16:28:00,84.9,41.9,29.64,South,182,13.2,14.1,22,0.00,,CLR,0.00,VWS V14.01,2013-04-29 21:28:00,
2013-04-29 16:29:00,85.1,42.0,29.64,South,189,12.3,14.1,22,0.00,,CLR,0.00,VWS V14.01,2013-04-29 21:29:00,
2013-04-29 16:30:00,84.9,41.9,29.64,SW,216,10.1,11.0,22,0.00,,CLR,0.00,VWS V14.01,2013-04-29 21:30:00,
2013-04-29 16:34:00,84.7,41.7,29.64,South,170,15.0,16.8,22,0.00,,CLR,0.00,VWS V14.01,2013-04-29 21:34:00,
2013-04-29 16:35:00,84.9,41.9,29.64,South,189,6.3,13.2,22,0.00,,CLR,0.00,VWS V14.01,2013-04-29 21:35:00,
2013-04-29 16:38:00,84.9,41.9,29.64,SSW,203,11.0,15.0,22,0.00,,CLR,0.00,VWS V14.01,2013-04-29 21:38:00,
2013-04-29 16:39:00,84.9,41.9,29.61,SSW,212,10.5,16.3,22,0.00,,CLR,0.00,VWS V14.01,2013-04-29 21:39:00,
2013-04-29 16:40:00,85.1,42.0,29.61,South,174,15.0,15.0,22,0.00,,CLR,0.00,VWS V14.01,2013-04-29 21:40:00,
2013-04-29 16:43:00,84.7,41.7,29.61,SSW,201,15.9,15.9,22,0.00,,CLR,0.00,VWS V14.01,2013-04-29 21:43:00,
2013-04-29 16:44:00,84.6,41.6,29.61,South,186,20.6,20.6,22,0.00,,CLR,0.00,VWS V14.01,2013-04-29 21:44:00,
2013-04-29 16:45:00,84.7,41.7,29.61,South,182,18.8,20.6,22,0.00,,CLR,0.00,VWS V14.01,2013-04-29 21:45:00,
2013-04-29 16:49:00,84.7,41.7,29.61,SSE,154,10.5,16.8,22,0.00,,CLR,0.00,VWS V14.01,2013-04-29 21:49:00,
2013-04-29 16:50:00,84.7,41.7,29.61,SE,137,12.8,13.2,22,0.00,,CLR,0.00,VWS V14.01,2013-04-29 21:50:00,
2013-04-29 16:51:00,84.6,41.6,29.61,South,171,12.8,15.9,22,0.00,,CLR,0.00,VWS V14.01,2013-04-29 21:51:00,
2013-04-29 16:54:00,84.7,41.7,29.61,SSE,155,13.2,13.2,22,0.00,,CLR,0.00,VWS V14.01,2013-04-29 21:54:00,
2013-04-29 16:56:00,84.7,41.7,29.61,South,179,17.0,17.0,22,0.00,,CLR,0.00,VWS V14.01,2013-04-29 21:56:00,
2013-04-29 16:57:00,84.7,41.7,29.61,South,173,15.0,15.4,22,0.00,,CLR,0.00,VWS V14.01,2013-04-29 21:57:00,
2013-04-29 17:00:00,84.6,41.6,29.61,South,189,15.0,15.4,22,0.00,,CLR,0.00,VWS V14.01,2013-04-29 22:00:00,
2013-04-29 17:01:00,84.6,41.6,29.61,South,183,15.0,16.3,22,0.00,,CLR,0.00,VWS V14.01,2013-04-29 22:01:00,
2013-04-29 17:02:00,84.6,41.6,29.61,South,183,15.0,15.0,22,0.00,,CLR,0.00,VWS V14.01,2013-04-29 22:02:00,
2013-04-29 17:03:00,84.6,41.6,29.61,SE,127,13.2,13.2,22,0.00,,CLR,0.00,VWS V14.01,2013-04-29 22:03:00,
2013-04-29 17:05:00,84.4,41.4,29.61,SSE,167,12.8,15.4,22,0.00,,CLR,0.00,VWS V14.01,2013-04-29 22:05:00,
2013-04-29 17:07:00,84.4,41.4,29.61,South,177,17.0,20.6,22,0.00,,CLR,0.00,VWS V14.01,2013-04-29 22:07:00,
2013-04-29 17:08:00,84.2,41.3,29.61,South,177,11.0,15.4,22,0.00,,CLR,0.00,VWS V14.01,2013-04-29 22:08:00,
2013-04-29 17:10:00,84.2,41.3,29.61,SSE,149,15.0,19.7,22,0.00,,CLR,0.00,VWS V14.01,2013-04-29 22:10:00,
2013-04-29 17:12:00,84.4,41.4,29.61,South,190,10.5,10.5,22,0.00,,CLR,0.00,VWS V14.01,2013-04-29 22:12:00,
2013-04-29 17:13:00,84.6,41.6,29.61,SSW,198,12.8,12.8,22,0.00,,CLR,0.00,VWS V14.01,2013-04-29 22:13:00,
2013-04-29 17:14:00,84.6,41.6,29.61,SSE,151,14.5,20.1,22,0.00,,CLR,0.00,VWS V14.01,2013-04-29 22:14:00,
2013-04-29 17:15:00,84.6,41.6,29.61,SSW,201,17.4,17.4,22,0.00,,CLR,0.00,VWS V14.01,2013-04-29 22:15:00,
2013-04-29 17:16:00,84.7,41.7,29.61,SSW,197,15.4,16.3,22,0.00,,CLR,0.00,VWS V14.01,2013-04-29 22:16:00,
2013-04-29 17:18:00,84.7,41.7,29.61,SSE,165,10.5,13.6,22,0.00,,CLR,0.00,VWS V14.01,2013-04-29 22:18:00,
2013-04-29 17:19:00,84.7,41.7,29.61,South,178,15.0,15.0,22,0.00,,CLR,0.00,VWS V14.01,2013-04-29 22:19:00,
2013-04-29 17:20:00,84.9,41.9,29.61,WSW,239,10.1,15.0,22,0.00,,CLR,0.00,VWS V14.01,2013-04-29 22:20:00,
2013-04-29 17:23:00,84.7,41.7,29.61,SE,129,12.8,12.8,22,0.00,,CLR,0.00,VWS V14.01,2013-04-29 22:23:00,
2013-04-29 17:24:00,84.9,41.9,29.61,SSE,157,6.3,13.2,22,0.00,,CLR,0.00,VWS V14.01,2013-04-29 22:24:00,
2013-04-29 17:25:00,85.1,42.0,29.61,SSW,206,11.0,11.4,22,0.00,,CLR,0.00,VWS V14.01,2013-04-29 22:25:00,
2013-04-29 17:29:00,84.9,41.9,29.61,SSW,212,12.3,14.5,22,0.00,,CLR,0.00,VWS V14.01,2013-04-29 22:29:00,
2013-04-29 17:30:00,84.9,41.9,29.61,SSE,166,15.0,17.0,22,0.00,,CLR,0.00,VWS V14.01,2013-04-29 22:30:00,
2013-04-29 17:31:00,84.7,41.7,29.61,SSE,162,15.4,15.9,22,0.00,,CLR,0.00,VWS V14.01,2013-04-29 22:31:00,
2013-04-29 17:32:00,84.6,41.6,29.61,South,174,8.7,15.4,22,0.00,,CLR,0.00,VWS V14.01,2013-04-29 22:32:00,
2013-04-29 17:34:00,84.4,41.4,29.61,SE,128,12.8,12.8,22,0.00,,CLR,0.00,VWS V14.01,2013-04-29 22:34:00,
2013-04-29 17:35:00,84.4,41.4,29.61,SSE,163,13.6,13.6,22,0.00,,CLR,0.00,VWS V14.01,2013-04-29 22:35:00,
2013-04-29 17:36:00,84.2,41.3,29.61,South,183,15.4,18.3,22,0.00,,CLR,0.00,VWS V14.01,2013-04-29 22:36:00,
2013-04-29 17:37:00,84.2,41.3,29.61,SW,214,9.6,15.4,22,0.00,,CLR,0.00,VWS V14.01,2013-04-29 22:37:00,
2013-04-29 17:40:00,84.2,41.3,29.61,South,188,11.9,20.1,22,0.00,,CLR,0.00,VWS V14.01,2013-04-29 22:40:00,
2013-04-29 17:41:00,84.0,41.1,29.61,South,173,8.3,17.4,22,0.00,,CLR,0.00,VWS V14.01,2013-04-29 22:41:00,
2013-04-29 17:42:00,84.2,41.3,29.61,South,174,11.0,11.0,22,0.00,,CLR,0.00,VWS V14.01,2013-04-29 22:42:00,
2013-04-29 17:45:00,84.4,41.4,29.61,SE,141,8.3,8.3,22,0.00,,CLR,0.00,VWS V14.01,2013-04-29 22:45:00,
2013-04-29 17:46:00,84.4,41.4,29.61,SSE,167,4.0,8.3,22,0.00,,CLR,0.00,VWS V14.01,2013-04-29 22:46:00,
2013-04-29 17:47:00,84.2,41.3,29.61,SE,125,11.0,15.0,22,0.00,,CLR,0.00,VWS V14.01,2013-04-29 22:47:00,
2013-04-29 17:49:00,84.0,41.1,29.61,South,191,18.8,18.8,22,0.00,,CLR,0.00,VWS V14.01,2013-04-29 22:49:00,
2013-04-29 17:51:00,84.0,41.1,29.61,SSE,159,13.2,15.4,22,0.00,,CLR,0.00,VWS V14.01,2013-04-29 22:51:00,
2013-04-29 17:52:00,84.0,41.1,29.61,NW,324,8.1,11.4,22,0.00,,CLR,0.00,VWS V14.01,2013-04-29 22:52:00,
2013-04-29 17:54:00,84.0,41.1,29.61,South,173,15.4,15.4,22,0.00,,CLR,0.00,VWS V14.01,2013-04-29 22:54:00,
2013-04-29 17:56:00,83.8,41.0,29.61,South,171,12.3,14.1,22,0.00,,CLR,0.00,VWS V14.01,2013-04-29 22:56:00,
2013-04-29 17:57:00,83.8,41.0,29.61,SW,226,12.8,13.2,22,0.00,,CLR,0.00,VWS V14.01,2013-04-29 22:57:00,
2013-04-29 17:58:00,83.7,40.8,29.61,South,176,13.6,15.4,22,0.00,,CLR,0.00,VWS V14.01,2013-04-29 22:58:00,
2013-04-29 17:59:00,83.5,40.7,29.61,SSE,150,15.9,21.0,22,0.00,,CLR,0.00,VWS V14.01,2013-04-29 22:59:00,
2013-04-29 18:01:00,83.5,40.7,29.61,South,182,11.0,11.9,22,0.00,,CLR,0.00,VWS V14.01,2013-04-29 23:01:00,
2013-04-29 18:02:00,83.5,40.7,29.61,South,172,10.5,12.3,22,0.00,,CLR,0.00,VWS V14.01,2013-04-29 23:02:00,
2013-04-29 18:03:00,83.3,40.5,29.61,South,181,10.1,14.1,22,0.00,,CLR,0.00,VWS V14.01,2013-04-29 23:03:00,
2013-04-29 18:04:00,83.3,40.5,29.61,South,172,8.1,12.3,22,0.00,,CLR,0.00,VWS V14.01,2013-04-29 23:04:00,
2013-04-29 18:05:00,83.5,40.7,29.61,SSE,166,11.0,11.0,22,0.00,,CLR,0.00,VWS V14.01,2013-04-29 23:05:00,
2013-04-29 18:07:00,83.3,40.5,29.61,South,176,12.3,13.2,22,0.00,,CLR,0.00,VWS V14.01,2013-04-29 23:07:00,
2013-04-29 18:08:00,83.1,40.4,29.61,SSE,162,12.8,14.1,22,0.00,,CLR,0.00,VWS V14.01,2013-04-29 23:08:00,
2013-04-29 18:09:00,83.1,40.4,29.61,SSW,195,15.4,15.4,22,0.00,,CLR,0.00,VWS V14.01,2013-04-29 23:09:00,
2013-04-29 18:10:00,83.1,40.4,29.61,SSE,165,10.5,15.4,22,0.00,,CLR,0.00,VWS V14.01,2013-04-29 23:10:00,
2013-04-29 18:12:00,83.1,40.4,29.61,SSW,212,9.6,12.3,22,0.00,,CLR,0.00,VWS V14.01,2013-04-29 23:12:00,
2013-04-29 18:14:00,82.9,40.2,29.61,SSE,153,14.5,14.5,22,0.00,,CLR,0.00,VWS V14.01,2013-04-29 23:14:00,
2013-04-29 18:15:00,82.9,40.2,29.61,South,187,11.0,15.0,22,0.00,,CLR,0.00,VWS V14.01,2013-04-29 23:15:00,
2013-04-29 18:16:00,82.9,40.2,29.61,South,176,11.0,11.0,22,0.00,,CLR,0.00,VWS V14.01,2013-04-29 23:16:00,
2013-04-29 18:17:00,82.9,40.2,29.61,SSW,196,11.9,11.9,22,0.00,,CLR,0.00,VWS V14.01,2013-04-29 23:17:00,
2013-04-29 18:18:00,82.9,40.2,29.61,SSE,157,8.7,8.7,22,0.00,,CLR,0.00,VWS V14.01,2013-04-29 23:18:00,
2013-04-29 18:20:00,82.9,40.2,29.61,SE,146,6.3,12.3,22,0.00,,CLR,0.00,VWS V14.01,2013-04-29 23:20:00,
2013-04-29 18:21:00,82.8,40.1,29.61,SE,144,8.1,13.2,22,0.00,,CLR,0.00,VWS V14.01,2013-04-29 23:21:00,
2013-04-29 18:23:00,82.2,41.9,29.61,SSE,158,10.1,10.1,24,0.00,,CLR,0.00,VWS V14.01,2013-04-29 23:23:00,
2013-04-29 18:25:00,82.2,41.9,29.61,SSE,152,10.5,11.0,24,0.00,,CLR,0.00,VWS V14.01,2013-04-29 23:25:00,
2013-04-29 18:27:00,81.9,41.6,29.61,South,171,8.7,12.8,24,0.00,,CLR,0.00,VWS V14.01,2013-04-29 23:27:00,
2013-04-29 18:28:00,81.7,41.4,29.61,South,177,11.0,12.8,24,0.00,,CLR,0.00,VWS V14.01,2013-04-29 23:28:00,
2013-04-29 18:31:00,81.1,41.0,29.61,SSE,168,12.3,12.3,24,0.00,,CLR,0.00,VWS V14.01,2013-04-29 23:31:00,
2013-04-29 18:32:00,81.1,41.0,29.61,SSE,155,11.9,13.2,24,0.00,,CLR,0.00,VWS V14.01,2013-04-29 23:32:00,
2013-04-29 18:34:00,81.1,41.0,29.61,SSE,164,9.2,13.2,24,0.00,,CLR,0.00,VWS V14.01,2013-04-29 23:34:00,
2013-04-29 18:36:00,80.8,40.7,29.61,SSE,155,6.7,13.2,24,0.00,,CLR,0.00,VWS V14.01,2013-04-29 23:36:00,
2013-04-29 18:37:00,80.8,40.7,29.61,ESE,116,14.5,15.0,24,0.00,,CLR,0.00,VWS V14.01,2013-04-29 23:37:00,
2013-04-29 18:39:00,80.8,40.7,29.61,NNW,333,7.6,8.1,24,0.00,,CLR,0.00,VWS V14.01,2013-04-29 23:39:00,
2013-04-29 18:41:00,80.8,40.7,29.61,South,177,5.4,8.1,24,0.00,,CLR,0.00,VWS V14.01,2013-04-29 23:41:00,
2013-04-29 18:42:00,80.6,40.5,29.61,SSE,166,6.3,10.1,24,0.00,,CLR,0.00,VWS V14.01,2013-04-29 23:42:00,
2013-04-29 18:44:00,80.4,40.4,29.61,South,173,8.7,9.6,24,0.00,,CLR,0.00,VWS V14.01,2013-04-29 23:44:00,
2013-04-29 18:45:00,80.2,40.2,29.61,SSW,201,8.1,13.2,24,0.00,,CLR,0.00,VWS V14.01,2013-04-29 23:45:00,
2013-04-29 18:48:00,80.1,40.1,29.61,South,170,8.1,8.7,24,0.00,,CLR,0.00,VWS V14.01,2013-04-29 23:48:00,
2013-04-29 18:49:00,80.1,40.1,29.61,SSW,205,8.3,9.6,24,0.00,,CLR,0.00,VWS V14.01,2013-04-29 23:49:00,
2013-04-29 18:50:00,79.9,39.9,29.61,South,171,10.1,10.5,24,0.00,,CLR,0.00,VWS V14.01,2013-04-29 23:50:00,
2013-04-29 18:53:00,79.7,39.8,29.61,South,181,8.3,10.5,24,0.00,,CLR,0.00,VWS V14.01,2013-04-29 23:53:00,
2013-04-29 18:54:00,79.5,39.6,29.61,SSE,158,11.0,11.0,24,0.00,,CLR,0.00,VWS V14.01,2013-04-29 23:54:00,
2013-04-29 18:55:00,79.5,39.6,29.61,South,170,8.3,8.3,24,0.00,,CLR,0.00,VWS V14.01,2013-04-29 23:55:00,
2013-04-29 18:58:00,79.3,39.5,29.61,South,172,8.7,10.5,24,0.00,,CLR,0.00,VWS V14.01,2013-04-29 23:58:00,
2013-04-29 18:59:00,79.2,39.3,29.61,SW,219,14.5,14.5,24,0.00,,CLR,0.00,VWS V14.01,2013-04-29 23:59:00,
2013-04-29 19:00:00,79.0,39.2,29.61,SSW,206,9.6,14.5,24,0.00,,CLR,0.00,VWS V14.01,2013-04-30 00:00:00,
2013-04-29 19:01:00,78.8,39.0,29.61,South,190,12.8,13.2,24,0.00,,CLR,0.00,VWS V14.01,2013-04-30 00:01:00,
2013-04-29 19:02:00,78.6,40.9,29.61,South,174,10.5,12.3,26,0.00,,CLR,0.00,VWS V14.01,2013-04-30 00:02:00,
2013-04-29 19:04:00,78.3,40.6,29.61,SSW,202,8.3,10.5,26,0.00,,CLR,0.00,VWS V14.01,2013-04-30 00:04:00,
2013-04-29 19:05:00,78.1,40.4,29.61,South,179,10.1,11.0,26,0.00,,CLR,0.00,VWS V14.01,2013-04-30 00:05:00,
2013-04-29 19:07:00,77.5,40.0,29.61,SSE,155,10.1,10.1,26,0.00,,CLR,0.00,VWS V14.01,2013-04-30 00:07:00,
2013-04-29 19:09:00,77.4,39.8,29.58,South,185,8.7,8.7,26,0.00,,CLR,0.00,VWS V14.01,2013-04-30 00:09:00,
2013-04-29 19:10:00,77.4,39.8,29.58,South,181,9.2,9.2,26,0.00,,CLR,0.00,VWS V14.01,2013-04-30 00:10:00,
2013-04-29 19:12:00,76.8,39.4,29.58,SSW,207,5.4,10.5,26,0.00,,CLR,0.00,VWS V14.01,2013-04-30 00:12:00,
2013-04-29 19:15:00,76.5,39.1,29.58,SSW,212,5.4,11.0,26,0.00,,CLR,0.00,VWS V14.01,2013-04-30 00:15:00,
2013-04-29 19:16:00,76.5,39.1,29.58,SSE,159,8.7,8.7,26,0.00,,CLR,0.00,VWS V14.01,2013-04-30 00:16:00,
2013-04-29 19:18:00,76.5,39.1,29.58,South,182,11.0,12.8,26,0.00,,CLR,0.00,VWS V14.01,2013-04-30 00:18:00,
2013-04-29 19:19:00,76.1,38.8,29.58,South,177,8.1,11.9,26,0.00,,CLR,0.00,VWS V14.01,2013-04-30 00:19:00,
2013-04-29 19:20:00,75.9,38.6,29.58,SSE,165,10.5,11.0,26,0.00,,CLR,0.00,VWS V14.01,2013-04-30 00:20:00,
2013-04-29 19:21:00,75.7,38.5,29.58,SE,146,10.5,11.0,26,0.00,,CLR,0.00,VWS V14.01,2013-04-30 00:21:00,
2013-04-29 19:22:00,75.7,38.5,29.58,SSE,151,8.7,10.5,26,0.00,,CLR,0.00,VWS V14.01,2013-04-30 00:22:00,
2013-04-29 19:23:00,75.6,38.3,29.58,SSW,192,10.1,12.3,26,0.00,,CLR,0.00,VWS V14.01,2013-04-30 00:23:00,
2013-04-29 19:24:00,75.4,38.2,29.61,NE,50,9.6,11.0,26,0.00,,CLR,0.00,VWS V14.01,2013-04-30 00:24:00,
2013-04-29 19:27:00,75.2,38.0,29.61,South,174,10.5,12.8,26,0.00,,CLR,0.00,VWS V14.01,2013-04-30 00:27:00,
2013-04-29 19:29:00,74.8,37.7,29.61,SE,146,6.3,10.5,26,0.00,,CLR,0.00,VWS V14.01,2013-04-30 00:29:00,
2013-04-29 19:31:00,74.7,37.5,29.61,South,175,8.1,12.8,26,0.00,,CLR,0.00,VWS V14.01,2013-04-30 00:31:00,
2013-04-29 19:32:00,74.7,37.5,29.61,SSE,159,8.7,10.5,26,0.00,,CLR,0.00,VWS V14.01,2013-04-30 00:32:00,
2013-04-29 19:33:00,74.7,37.5,29.61,SE,139,11.0,11.0,26,0.00,,CLR,0.00,VWS V14.01,2013-04-30 00:33:00,
2013-04-29 19:35:00,74.5,37.4,29.61,SE,128,9.2,12.3,26,0.00,,CLR,0.00,VWS V14.01,2013-04-30 00:35:00,
2013-04-29 19:36:00,74.5,37.4,29.61,SW,223,8.7,10.5,26,0.00,,CLR,0.00,VWS V14.01,2013-04-30 00:36:00,
2013-04-29 19:38:00,74.3,37.2,29.61,SSE,154,8.3,10.1,26,0.00,,CLR,0.00,VWS V14.01,2013-04-30 00:38:00,
2013-04-29 19:40:00,74.1,37.1,29.61,SE,142,8.3,8.3,26,0.00,,CLR,0.00,VWS V14.01,2013-04-30 00:40:00,
2013-04-29 19:42:00,73.9,36.9,29.61,SE,142,10.5,11.9,26,0.00,,CLR,0.00,VWS V14.01,2013-04-30 00:42:00,
2013-04-29 19:43:00,73.8,36.8,29.61,South,169,8.1,8.1,26,0.00,,CLR,0.00,VWS V14.01,2013-04-30 00:43:00,
2013-04-29 19:44:00,73.8,36.8,29.61,South,169,7.6,11.4,26,0.00,,CLR,0.00,VWS V14.01,2013-04-30 00:44:00,
2013-04-29 19:45:00,73.6,36.6,29.61,South,178,6.3,11.0,26,0.00,,CLR,0.00,VWS V14.01,2013-04-30 00:45:00,
2013-04-29 19:46:00,73.4,36.5,29.61,South,178,10.1,10.5,26,0.00,,CLR,0.00,VWS V14.01,2013-04-30 00:46:00,
2013-04-29 19:47:00,73.4,36.5,29.61,SSE,168,10.1,10.1,26,0.00,,CLR,0.00,VWS V14.01,2013-04-30 00:47:00,
2013-04-29 19:48:00,73.4,36.5,29.61,SSW,193,10.5,10.5,26,0.00,,CLR,0.00,VWS V14.01,2013-04-30 00:48:00,
2013-04-29 19:49:00,73.2,38.2,29.61,SE,142,11.0,11.0,28,0.00,,CLR,0.00,VWS V14.01,2013-04-30 00:49:00,
2013-04-29 19:50:00,73.0,38.0,29.61,SSE,165,10.5,10.5,28,0.00,,CLR,0.00,VWS V14.01,2013-04-30 00:50:00,
2013-04-29 19:52:00,73.0,38.0,29.61,SSE,167,5.8,10.5,28,0.00,,CLR,0.00,VWS V14.01,2013-04-30 00:52:00,
2013-04-29 19:54:00,72.9,37.9,29.61,South,170,6.3,8.7,28,0.00,,CLR,0.00,VWS V14.01,2013-04-30 00:54:00,
2013-04-29 19:55:00,72.9,37.9,29.61,SE,143,8.1,8.7,28,0.00,,CLR,0.00,VWS V14.01,2013-04-30 00:55:00,
2013-04-29 19:58:00,72.7,37.7,29.61,SSE,166,8.3,12.3,28,0.00,,CLR,0.00,VWS V14.01,2013-04-30 00:58:00,
2013-04-29 19:59:00,72.5,37.6,29.61,South,172,12.3,12.3,28,0.00,,CLR,0.00,VWS V14.01,2013-04-30 00:59:00,
2013-04-29 20:00:00,72.5,37.6,29.61,SE,131,8.1,12.8,28,0.00,,CLR,0.00,VWS V14.01,2013-04-30 01:00:00,
2013-04-29 20:01:00,72.5,37.6,29.61,SSE,148,11.0,12.8,28,0.00,,CLR,0.00,VWS V14.01,2013-04-30 01:01:00,
2013-04-29 20:02:00,72.5,37.6,29.61,SSE,162,5.4,8.7,28,0.00,,CLR,0.00,VWS V14.01,2013-04-30 01:02:00,
2013-04-29 20:03:00,72.5,37.6,29.61,South,170,10.1,12.8,28,0.00,,CLR,0.00,VWS V14.01,2013-04-30 01:03:00,
2013-04-29 20:05:00,72.3,37.4,29.61,SSE,158,10.1,11.0,28,0.00,,CLR,0.00,VWS V14.01,2013-04-30 01:05:00,
2013-04-29 20:07:00,72.3,37.4,29.61,SSW,196,11.0,13.2,28,0.00,,CLR,0.00,VWS V14.01,2013-04-30 01:07:00,
2013-04-29 20:09:00,72.3,37.4,29.61,SE,145,8.3,8.7,28,0.00,,CLR,0.00,VWS V14.01,2013-04-30 01:09:00,
2013-04-29 20:10:00,72.1,37.3,29.61,South,169,9.2,9.6,28,0.00,,CLR,0.00,VWS V14.01,2013-04-30 01:10:00,
2013-04-29 20:11:00,72.1,37.3,29.61,SE,131,7.6,9.6,28,0.00,,CLR,0.00,VWS V14.01,2013-04-30 01:11:00,
2013-04-29 20:12:00,72.1,37.3,29.61,South,171,11.0,11.0,28,0.00,,CLR,0.00,VWS V14.01,2013-04-30 01:12:00,
2013-04-29 20:14:00,72.0,37.1,29.61,SSE,147,6.3,11.0,28,0.00,,CLR,0.00,VWS V14.01,2013-04-30 01:14:00,
2013-04-29 20:17:00,72.0,37.1,29.61,South,171,9.2,12.3,28,0.00,,CLR,0.00,VWS V14.01,2013-04-30 01:17:00,
2013-04-29 20:18:00,72.0,37.1,29.61,South,185,8.3,8.3,28,0.00,,CLR,0.00,VWS V14.01,2013-04-30 01:18:00,
2013-04-29 20:19:00,71.8,37.0,29.61,South,179,8.7,8.7,28,0.00,,CLR,0.00,VWS V14.01,2013-04-30 01:19:00,
2013-04-29 20:22:00,71.8,37.0,29.61,ESE,109,11.0,11.0,28,0.00,,CLR,0.00,VWS V14.01,2013-04-30 01:22:00,
2013-04-29 20:23:00,71.8,37.0,29.61,SSE,149,12.8,12.8,28,0.00,,CLR,0.00,VWS V14.01,2013-04-30 01:23:00,
2013-04-29 20:24:00,71.8,37.0,29.61,SSE,149,5.4,10.1,28,0.00,,CLR,0.00,VWS V14.01,2013-04-30 01:24:00,
2013-04-29 20:25:00,71.8,37.0,29.61,SSE,149,10.5,10.5,28,0.00,,CLR,0.00,VWS V14.01,2013-04-30 01:25:00,
2013-04-29 20:26:00,71.8,37.0,29.61,South,170,7.6,10.5,28,0.00,,CLR,0.00,VWS V14.01,2013-04-30 01:26:00,
2013-04-29 20:27:00,71.6,36.8,29.61,South,175,8.7,12.3,28,0.00,,CLR,0.00,VWS V14.01,2013-04-30 01:27:00,
2013-04-29 20:28:00,71.6,36.8,29.61,SSE,154,8.3,10.5,28,0.00,,CLR,0.00,VWS V14.01,2013-04-30 01:28:00,
2013-04-29 20:30:00,71.6,36.8,29.61,SSE,156,8.3,10.1,28,0.00,,CLR,0.00,VWS V14.01,2013-04-30 01:30:00,
2013-04-29 20:31:00,71.6,36.8,29.61,SE,141,8.7,8.7,28,0.00,,CLR,0.00,VWS V14.01,2013-04-30 01:31:00,
2013-04-29 20:32:00,71.6,36.8,29.61,South,169,6.3,12.3,28,0.00,,CLR,0.00,VWS V14.01,2013-04-30 01:32:00,
2013-04-29 20:33:00,71.4,36.7,29.61,SSE,166,13.2,13.2,28,0.00,,CLR,0.00,VWS V14.01,2013-04-30 01:33:00,
2013-04-29 20:36:00,71.4,36.7,29.61,SSW,202,8.3,13.2,28,0.00,,CLR,0.00,VWS V14.01,2013-04-30 01:36:00,
2013-04-29 20:37:00,71.2,36.5,29.61,South,169,10.5,14.5,28,0.00,,CLR,0.00,VWS V14.01,2013-04-30 01:37:00,
2013-04-29 20:39:00,71.2,36.5,29.64,SSE,155,10.1,10.5,28,0.00,,CLR,0.00,VWS V14.01,2013-04-30 01:39:00,
2013-04-29 20:42:00,71.1,36.3,29.64,SSW,203,10.5,10.5,28,0.00,,CLR,0.00,VWS V14.01,2013-04-30 01:42:00,
2013-04-29 20:43:00,71.1,36.3,29.64,SSW,206,8.7,11.0,28,0.00,,CLR,0.00,VWS V14.01,2013-04-30 01:43:00,
2013-04-29 20:44:00,71.1,36.3,29.64,South,181,10.5,10.5,28,0.00,,CLR,0.00,VWS V14.01,2013-04-30 01:44:00,
2013-04-29 20:47:00,71.1,36.3,29.64,SE,143,6.3,12.3,28,0.00,,CLR,0.00,VWS V14.01,2013-04-30 01:47:00,
2013-04-29 20:48:00,71.1,36.3,29.64,SSE,166,8.1,8.7,28,0.00,,CLR,0.00,VWS V14.01,2013-04-30 01:48:00,
2013-04-29 20:50:00,71.1,36.3,29.64,South,191,11.0,11.0,28,0.00,,CLR,0.00,VWS V14.01,2013-04-30 01:50:00,
2013-04-29 20:53:00,71.1,36.3,29.64,SSE,160,10.5,10.5,28,0.00,,CLR,0.00,VWS V14.01,2013-04-30 01:53:00,
2013-04-29 20:54:00,71.1,36.3,29.64,SSE,157,8.7,11.0,28,0.00,,CLR,0.00,VWS V14.01,2013-04-30 01:54:00,
2013-04-29 20:56:00,70.9,36.2,29.64,SSE,168,8.3,10.1,28,0.00,,CLR,0.00,VWS V14.01,2013-04-30 01:56:00,
2013-04-29 20:58:00,70.9,36.2,29.64,South,176,10.5,10.5,28,0.00,,CLR,0.00,VWS V14.01,2013-04-30 01:58:00,
2013-04-29 20:59:00,70.9,36.2,29.64,SSE,153,8.1,14.1,28,0.00,,CLR,0.00,VWS V14.01,2013-04-30 01:59:00,
2013-04-29 21:01:00,70.9,36.2,29.64,SSE,165,8.1,10.5,28,0.00,,CLR,0.00,VWS V14.01,2013-04-30 02:01:00,
2013-04-29 21:02:00,70.9,36.2,29.64,SW,219,11.0,11.0,28,0.00,,CLR,0.00,VWS V14.01,2013-04-30 02:02:00,
2013-04-29 21:04:00,70.9,36.2,29.64,SE,146,8.7,11.0,28,0.00,,CLR,0.00,VWS V14.01,2013-04-30 02:04:00,
2013-04-29 21:05:00,70.7,36.0,29.64,SE,139,6.3,8.3,28,0.00,,CLR,0.00,VWS V14.01,2013-04-30 02:05:00,
2013-04-29 21:07:00,70.7,36.0,29.64,SE,146,10.1,10.1,28,0.00,,CLR,0.00,VWS V14.01,2013-04-30 02:07:00,
2013-04-29 21:09:00,70.7,36.0,29.64,ESE,118,8.1,10.5,28,0.00,,CLR,0.00,VWS V14.01,2013-04-30 02:09:00,
2013-04-29 21:10:00,70.7,36.0,29.64,ESE,118,8.1,10.5,28,0.00,,CLR,0.00,VWS V14.01,2013-04-30 02:10:00,
2013-04-29 21:12:00,70.5,35.9,29.64,SE,145,11.0,11.4,28,0.00,,CLR,0.00,VWS V14.01,2013-04-30 02:12:00,
2013-04-29 21:13:00,70.5,35.9,29.64,South,186,8.3,11.0,28,0.00,,CLR,0.00,VWS V14.01,2013-04-30 02:13:00,
2013-04-29 21:15:00,70.5,35.9,29.64,South,176,6.3,7.6,28,0.00,,CLR,0.00,VWS V14.01,2013-04-30 02:15:00,
2013-04-29 21:16:00,70.5,35.9,29.64,South,171,12.3,12.3,28,0.00,,CLR,0.00,VWS V14.01,2013-04-30 02:16:00,
2013-04-29 21:17:00,70.5,35.9,29.64,SSE,154,7.6,7.6,28,0.00,,CLR,0.00,VWS V14.01,2013-04-30 02:17:00,
2013-04-29 21:18:00,70.3,35.7,29.64,SSE,161,10.1,11.0,28,0.00,,CLR,0.00,VWS V14.01,2013-04-30 02:18:00,
2013-04-29 21:20:00,70.3,35.7,29.64,SSE,166,9.6,9.6,28,0.00,,CLR,0.00,VWS V14.01,2013-04-30 02:20:00,
2013-04-29 21:21:00,70.3,35.7,29.64,ESE,123,5.8,10.5,28,0.00,,CLR,0.00,VWS V14.01,2013-04-30 02:21:00,
2013-04-29 21:22:00,70.3,35.7,29.64,South,173,12.3,12.3,28,0.00,,CLR,0.00,VWS V14.01,2013-04-30 02:22:00,
2013-04-29 21:23:00,70.3,35.7,29.64,SSE,159,10.1,15.0,28,0.00,,CLR,0.00,VWS V14.01,2013-04-30 02:23:00,
2013-04-29 21:26:00,70.3,35.7,29.64,SSE,147,5.4,11.0,28,0.00,,CLR,0.00,VWS V14.01,2013-04-30 02:26:00,
2013-04-29 21:27:00,70.3,35.7,29.64,South,185,8.3,15.0,28,0.00,,CLR,0.00,VWS V14.01,2013-04-30 02:27:00,
2013-04-29 21:28:00,70.2,35.6,29.64,SSE,168,10.5,10.5,28,0.00,,CLR,0.00,VWS V14.01,2013-04-30 02:28:00,
2013-04-29 21:31:00,70.2,35.6,29.64,SSE,160,6.3,10.1,28,0.00,,CLR,0.00,VWS V14.01,2013-04-30 02:31:00,
2013-04-29 21:32:00,70.2,35.6,29.64,SSE,165,10.5,10.5,28,0.00,,CLR,0.00,VWS V14.01,2013-04-30 02:32:00,
2013-04-29 21:34:00,70.0,35.4,29.64,SE,140,10.5,11.0,28,0.00,,CLR,0.00,VWS V14.01,2013-04-30 02:34:00,
2013-04-29 21:36:00,70.0,35.4,29.64,SSE,162,12.3,12.3,28,0.00,,CLR,0.00,VWS V14.01,2013-04-30 02:36:00,
2013-04-29 21:37:00,70.0,35.4,29.64,SSE,162,14.1,14.1,28,0.00,,CLR,0.00,VWS V14.01,2013-04-30 02:37:00,
2013-04-29 21:39:00,70.0,35.4,29.64,South,170,9.6,11.0,28,0.00,,CLR,0.00,VWS V14.01,2013-04-30 02:39:00,
2013-04-29 21:40:00,69.8,35.3,29.64,South,185,8.7,8.7,28,0.00,,CLR,0.00,VWS V14.01,2013-04-30 02:40:00,
2013-04-29 21:42:00,69.8,35.3,29.64,SE,145,8.1,8.1,28,0.00,,CLR,0.00,VWS V14.01,2013-04-30 02:42:00,
2013-04-29 21:43:00,69.8,35.3,29.64,SSW,193,8.7,8.7,28,0.00,,CLR,0.00,VWS V14.01,2013-04-30 02:43:00,
2013-04-29 21:44:00,69.6,36.8,29.64,SSE,149,12.3,12.3,30,0.00,,CLR,0.00,VWS V14.01,2013-04-30 02:44:00,
2013-04-29 21:45:00,69.6,36.8,29.64,SSE,157,8.1,9.6,30,0.00,,CLR,0.00,VWS V14.01,2013-04-30 02:45:00,
2013-04-29 21:47:00,69.6,36.8,29.64,South,172,10.5,10.5,30,0.00,,CLR,0.00,VWS V14.01,2013-04-30 02:47:00,
2013-04-29 21:48:00,69.6,36.8,29.64,SE,144,5.4,10.5,30,0.00,,CLR,0.00,VWS V14.01,2013-04-30 02:48:00,
2013-04-29 21:49:00,69.6,36.8,29.64,SSE,153,11.9,12.3,30,0.00,,CLR,0.00,VWS V14.01,2013-04-30 02:49:00,
2013-04-29 21:50:00,69.8,35.3,29.64,SSE,163,12.3,12.3,28,0.00,,CLR,0.00,VWS V14.01,2013-04-30 02:50:00,
2013-04-29 21:51:00,69.8,35.3,29.64,SSW,193,8.7,11.0,28,0.00,,CLR,0.00,VWS V14.01,2013-04-30 02:51:00,
2013-04-29 21:53:00,69.8,35.3,29.64,SSE,157,9.6,11.9,28,0.00,,CLR,0.00,VWS V14.01,2013-04-30 02:53:00,
2013-04-29 21:55:00,69.6,36.8,29.64,SSE,148,9.6,9.6,30,0.00,,CLR,0.00,VWS V14.01,2013-04-30 02:55:00,
2013-04-29 21:56:00,69.6,36.8,29.64,South,189,11.0,11.9,30,0.00,,CLR,0.00,VWS V14.01,2013-04-30 02:56:00,
2013-04-29 21:59:00,69.6,36.8,29.64,South,170,7.6,8.7,30,0.00,,CLR,0.00,VWS V14.01,2013-04-30 02:59:00,
2013-04-29 22:00:00,69.6,36.8,29.64,SE,146,9.2,10.5,30,0.00,,CLR,0.00,VWS V14.01,2013-04-30 03:00:00,
2013-04-29 22:01:00,69.6,36.8,29.64,SE,144,8.3,10.5,30,0.00,,CLR,0.00,VWS V14.01,2013-04-30 03:01:00,
2013-04-29 22:05:00,69.6,36.8,29.64,SSE,167,8.7,11.0,30,0.00,,CLR,0.00,VWS V14.01,2013-04-30 03:05:00,
2013-04-29 22:06:00,69.6,36.8,29.64,SSE,163,8.3,8.3,30,0.00,,CLR,0.00,VWS V14.01,2013-04-30 03:06:00,
2013-04-29 22:07:00,69.6,36.8,29.64,SSE,166,8.3,8.3,30,0.00,,CLR,0.00,VWS V14.01,2013-04-30 03:07:00,
2013-04-29 22:10:00,69.6,36.8,29.64,South,183,13.2,13.2,30,0.00,,CLR,0.00,VWS V14.01,2013-04-30 03:10:00,
2013-04-29 22:11:00,69.6,36.8,29.64,SE,144,10.1,13.2,30,0.00,,CLR,0.00,VWS V14.01,2013-04-30 03:11:00,
2013-04-29 22:12:00,69.6,36.8,29.64,SE,144,10.1,12.3,30,0.00,,CLR,0.00,VWS V14.01,2013-04-30 03:12:00,
2013-04-29 22:13:00,69.6,36.8,29.64,West,280,10.5,10.5,30,0.00,,CLR,0.00,VWS V14.01,2013-04-30 03:13:00,
2013-04-29 22:16:00,69.6,36.8,29.64,SE,139,10.5,11.0,30,0.00,,CLR,0.00,VWS V14.01,2013-04-30 03:16:00,
2013-04-29 22:17:00,69.8,35.3,29.64,SSE,151,10.1,11.0,28,0.00,,CLR,0.00,VWS V14.01,2013-04-30 03:17:00,
2013-04-29 22:18:00,69.8,35.3,29.64,SW,226,6.3,10.1,28,0.00,,CLR,0.00,VWS V14.01,2013-04-30 03:18:00,
2013-04-29 22:19:00,69.8,35.3,29.64,SSE,165,11.9,12.3,28,0.00,,CLR,0.00,VWS V14.01,2013-04-30 03:19:00,
2013-04-29 22:22:00,69.8,35.3,29.64,SSE,151,10.1,10.1,28,0.00,,CLR,0.00,VWS V14.01,2013-04-30 03:22:00,
2013-04-29 22:23:00,69.8,35.3,29.64,SSW,204,10.5,10.5,28,0.00,,CLR,0.00,VWS V14.01,2013-04-30 03:23:00,
2013-04-29 22:24:00,69.6,36.8,29.64,SSE,150,8.3,10.5,30,0.00,,CLR,0.00,VWS V14.01,2013-04-30 03:24:00,
2013-04-29 22:28:00,69.6,40.0,29.64,SSW,198,8.1,8.7,34,0.00,,CLR,0.00,VWS V14.01,2013-04-30 03:28:00,
2013-04-29 22:29:00,69.6,36.8,29.64,South,171,10.5,12.3,30,0.00,,CLR,0.00,VWS V14.01,2013-04-30 03:29:00,
2013-04-29 22:30:00,69.6,36.8,29.64,SSE,165,11.0,11.0,30,0.00,,CLR,0.00,VWS V14.01,2013-04-30 03:30:00,
2013-04-29 22:34:00,69.6,36.8,29.64,South,171,8.1,9.2,30,0.00,,CLR,0.00,VWS V14.01,2013-04-30 03:34:00,
2013-04-29 22:35:00,69.6,36.8,29.64,South,182,11.0,11.4,30,0.00,,CLR,0.00,VWS V14.01,2013-04-30 03:35:00,
2013-04-29 22:39:00,69.6,40.0,29.64,South,171,7.6,10.5,34,0.00,,CLR,0.00,VWS V14.01,2013-04-30 03:39:00,
2013-04-29 22:40:00,69.6,40.0,29.64,SSE,166,8.7,10.1,34,0.00,,CLR,0.00,VWS V14.01,2013-04-30 03:40:00,
2013-04-29 22:41:00,69.6,36.8,29.64,SSW,199,8.3,12.3,30,0.00,,CLR,0.00,VWS V14.01,2013-04-30 03:41:00,
2013-04-29 22:44:00,69.4,39.9,29.64,South,172,7.6,8.3,34,0.00,,CLR,0.00,VWS V14.01,2013-04-30 03:44:00,
2013-04-29 22:45:00,69.4,39.9,29.64,South,172,7.6,8.3,34,0.00,,CLR,0.00,VWS V14.01,2013-04-30 03:45:00,
2013-04-29 22:46:00,69.4,39.9,29.64,South,169,8.7,8.7,34,0.00,,CLR,0.00,VWS V14.01,2013-04-30 03:46:00,
2013-04-29 22:47:00,69.4,39.9,29.64,NE,56,8.1,10.5,34,0.00,,CLR,0.00,VWS V14.01,2013-04-30 03:47:00,
2013-04-29 22:50:00,69.3,39.7,29.64,SSE,167,6.3,8.1,34,0.00,,CLR,0.00,VWS V14.01,2013-04-30 03:50:00,
2013-04-29 22:51:00,69.1,39.6,29.64,SSE,157,5.8,9.2,34,0.00,,CLR,0.00,VWS V14.01,2013-04-30 03:51:00,
2013-04-29 22:52:00,69.1,39.6,29.64,SSW,192,5.8,13.2,34,0.00,,CLR,0.00,VWS V14.01,2013-04-30 03:52:00,
2013-04-29 22:53:00,69.1,39.6,29.64,SSE,154,8.3,8.3,34,0.00,,CLR,0.00,VWS V14.01,2013-04-30 03:53:00,
2013-04-29 22:55:00,69.1,39.6,29.64,South,171,8.3,12.3,34,0.00,,CLR,0.00,VWS V14.01,2013-04-30 03:55:00,
2013-04-29 22:56:00,68.9,39.4,29.64,SSE,149,10.1,11.9,34,0.00,,CLR,0.00,VWS V14.01,2013-04-30 03:56:00,
2013-04-29 22:58:00,68.9,39.4,29.64,SSW,193,8.3,10.5,34,0.00,,CLR,0.00,VWS V14.01,2013-04-30 03:58:00,
2013-04-29 23:00:00,68.9,39.4,29.64,SW,223,7.6,12.3,34,0.00,,CLR,0.00,VWS V14.01,2013-04-30 04:00:00,
2013-04-29 23:01:00,68.9,39.4,29.64,South,172,7.6,7.6,34,0.00,,CLR,0.00,VWS V14.01,2013-04-30 04:01:00,
2013-04-29 23:03:00,68.7,39.2,29.64,SSE,159,10.5,10.5,34,0.00,,CLR,0.00,VWS V14.01,2013-04-30 04:03:00,
2013-04-29 23:06:00,68.5,39.1,29.64,South,173,7.6,10.5,34,0.00,,CLR,0.00,VWS V14.01,2013-04-30 04:06:00,
2013-04-29 23:07:00,68.5,39.1,29.64,SSE,163,5.8,8.3,34,0.00,,CLR,0.00,VWS V14.01,2013-04-30 04:07:00,
2013-04-29 23:09:00,68.5,39.1,29.64,South,185,5.8,8.7,34,0.00,,CLR,0.00,VWS V14.01,2013-04-30 04:09:00,
2013-04-29 23:12:00,68.4,38.9,29.64,South,184,7.2,10.1,34,0.00,,CLR,0.00,VWS V14.01,2013-04-30 04:12:00,
2013-04-29 23:13:00,68.4,38.9,29.64,SE,142,7.6,9.6,34,0.00,,CLR,0.00,VWS V14.01,2013-04-30 04:13:00,
2013-04-29 23:14:00,68.4,38.9,29.64,SSE,161,8.7,10.1,34,0.00,,CLR,0.00,VWS V14.01,2013-04-30 04:14:00,
2013-04-29 23:17:00,68.4,38.9,29.64,South,170,8.1,10.5,34,0.00,,CLR,0.00,VWS V14.01,2013-04-30 04:17:00,
2013-04-29 23:18:00,68.4,38.9,29.64,SE,132,7.6,8.7,34,0.00,,CLR,0.00,VWS V14.01,2013-04-30 04:18:00,
2013-04-29 23:19:00,68.4,38.9,29.64,SSE,155,5.8,8.3,34,0.00,,CLR,0.00,VWS V14.01,2013-04-30 04:19:00,
2013-04-29 23:22:00,68.2,38.8,29.64,SSE,168,5.4,6.3,34,0.00,,CLR,0.00,VWS V14.01,2013-04-30 04:22:00,
2013-04-29 23:23:00,68.2,38.8,29.64,South,177,5.8,8.1,34,0.00,,CLR,0.00,VWS V14.01,2013-04-30 04:23:00,
2013-04-29 23:24:00,68.0,38.6,29.64,South,173,5.4,8.1,34,0.00,,CLR,0.00,VWS V14.01,2013-04-30 04:24:00,
2013-04-29 23:25:00,68.0,38.6,29.64,SSE,153,10.5,10.5,34,0.00,,CLR,0.00,VWS V14.01,2013-04-30 04:25:00,
2013-04-29 23:28:00,68.0,42.8,29.64,SSE,165,8.3,8.3,40,0.00,,CLR,0.00,VWS V14.01,2013-04-30 04:28:00,
2013-04-29 23:29:00,68.0,42.8,29.64,SSE,157,8.7,8.7,40,0.00,,CLR,0.00,VWS V14.01,2013-04-30 04:29:00,
2013-04-29 23:30:00,68.0,42.8,29.64,South,188,5.8,8.7,40,0.00,,CLR,0.00,VWS V14.01,2013-04-30 04:30:00,
2013-04-29 23:31:00,68.0,42.8,29.64,SSE,165,5.4,7.6,40,0.00,,CLR,0.00,VWS V14.01,2013-04-30 04:31:00,
2013-04-29 23:33:00,67.8,42.6,29.64,SSW,198,5.8,8.1,40,0.00,,CLR,0.00,VWS V14.01,2013-04-30 04:33:00,
2013-04-29 23:35:00,67.8,42.6,29.64,SSE,151,5.8,6.7,40,0.00,,CLR,0.00,VWS V14.01,2013-04-30 04:35:00,
2013-04-29 23:36:00,67.6,42.5,29.64,ESE,116,5.8,5.8,40,0.00,,CLR,0.00,VWS V14.01,2013-04-30 04:36:00,
2013-04-29 23:37:00,67.6,42.5,29.64,SSE,164,7.6,7.6,40,0.00,,CLR,0.00,VWS V14.01,2013-04-30 04:37:00,
2013-04-29 23:40:00,67.6,42.5,29.64,South,180,4.5,8.7,40,0.00,,CLR,0.00,VWS V14.01,2013-04-30 04:40:00,
2013-04-29 23:41:00,67.6,42.5,29.64,SW,218,8.3,10.1,40,0.00,,CLR,0.00,VWS V14.01,2013-04-30 04:41:00,
2013-04-29 23:42:00,67.6,42.5,29.64,South,188,8.3,8.7,40,0.00,,CLR,0.00,VWS V14.01,2013-04-30 04:42:00,
2013-04-29 23:43:00,67.6,42.5,29.64,South,179,6.3,8.1,40,0.00,,CLR,0.00,VWS V14.01,2013-04-30 04:43:00,
2013-04-29 23:45:00,67.5,42.3,29.64,SE,131,8.3,10.5,40,0.00,,CLR,0.00,VWS V14.01,2013-04-30 04:45:00,
2013-04-29 23:46:00,67.5,42.3,29.64,SSE,158,8.1,8.1,40,0.00,,CLR,0.00,VWS V14.01,2013-04-30 04:46:00,
2013-04-29 23:48:00,67.5,42.3,29.64,SSE,168,5.4,8.1,40,0.00,,CLR,0.00,VWS V14.01,2013-04-30 04:48:00,
2013-04-29 23:49:00,67.5,42.3,29.64,SSE,158,8.3,8.3,40,0.00,,CLR,0.00,VWS V14.01,2013-04-30 04:49:00,
2013-04-29 23:51:00,67.5,42.3,29.64,South,173,8.7,8.7,40,0.00,,CLR,0.00,VWS V14.01,2013-04-30 04:51:00,
2013-04-29 23:52:00,67.5,42.3,29.64,SSE,161,5.8,5.8,40,0.00,,CLR,0.00,VWS V14.01,2013-04-30 04:52:00,
2013-04-29 23:53:00,67.5,42.3,29.64,SSE,159,8.7,8.7,40,0.00,,CLR,0.00,VWS V14.01,2013-04-30 04:53:00,
2013-04-29 23:54:00,67.5,42.3,29.64,SSE,166,10.5,10.5,40,0.00,,CLR,0.00,VWS V14.01,2013-04-30 04:54:00,
2013-04-29 23:56:00,67.5,42.3,29.64,SSE,158,8.1,8.1,40,0.00,,CLR,0.00,VWS V14.01,2013-04-30 04:56:00,
2013-04-29 23:58:00,67.5,42.3,29.64,SSE,150,8.1,10.5,40,0.00,,CLR,0.00,VWS V14.01,2013-04-30 04:58:00,
2013-04-29 23:59:00,67.5,44.8,29.64,South,180,5.8,8.3,44,0.00,,CLR,0.00,VWS V14.01,2013-04-30 04:59:00,